Time,TemperatureF,DewpointF,PressureIn,WindDirection,WindDirectionDegrees,WindSpeedMPH,WindSpeedGustMPH,Humidity,HourlyPrecipIn,Conditions,Clouds,dailyrainin,SolarRadiationWatts/m^2,SoftwareType,DateUTC
2013-01-03 00:03:00,29.4,27.4,30.18,West,279,7.0,7.0,92,0.00,,,0.00,0,Wunderground v.1.15,2013-01-03 06:03:00,
2013-01-03 00:04:00,29.4,27.4,30.18,West,281,9.0,9.0,92,0.00,,,0.00,0,Wunderground v.1.15,2013-01-03 06:04:00,
2013-01-03 00:05:00,29.4,27.4,30.18,West,278,7.0,9.0,92,0.00,,,0.00,0,Wunderground v.1.15,2013-01-03 06:05:00,
2013-01-03 00:06:00,29.4,27.4,30.18,West,277,8.0,9.0,92,0.00,,,0.00,0,Wunderground v.1.15,2013-01-03 06:06:00,
2013-01-03 00:10:00,29.4,27.4,30.18,West,281,8.0,8.0,92,0.00,,,0.00,0,Wunderground v.1.15,2013-01-03 06:10:00,
2013-01-03 00:11:00,29.4,27.4,30.18,West,281,9.0,9.0,92,0.00,,,0.00,0,Wunderground v.1.15,2013-01-03 06:11:00,
2013-01-03 00:15:00,29.6,27.6,30.18,WNW,282,8.0,10.0,92,0.00,,,0.00,0,Wunderground v.1.15,2013-01-03 06:15:00,
2013-01-03 00:16:00,29.6,27.6,30.18,WNW,287,9.0,10.0,92,0.00,,,0.00,0,Wunderground v.1.15,2013-01-03 06:16:00,
2013-01-03 00:17:00,29.6,27.6,30.18,WNW,286,9.0,10.0,92,0.00,,,0.00,0,Wunderground v.1.15,2013-01-03 06:17:00,
2013-01-03 00:18:00,29.7,27.7,30.18,WNW,282,8.0,10.0,92,0.00,,,0.00,0,Wunderground v.1.15,2013-01-03 06:18:00,
2013-01-03 00:21:00,29.7,27.7,30.18,WNW,284,9.0,9.0,92,0.00,,,0.00,0,Wunderground v.1.15,2013-01-03 06:21:00,
2013-01-03 00:22:00,29.8,27.8,30.18,West,281,9.0,9.0,92,0.00,,,0.00,0,Wunderground v.1.15,2013-01-03 06:22:00,
2013-01-03 00:24:00,29.8,27.8,30.18,WNW,284,9.0,11.0,92,0.00,,,0.00,0,Wunderground v.1.15,2013-01-03 06:24:00,
2013-01-03 00:26:00,29.9,27.9,30.18,WNW,288,9.0,11.0,92,0.00,,,0.00,0,Wunderground v.1.15,2013-01-03 06:26:00,
2013-01-03 00:29:00,29.9,27.9,30.18,WNW,285,8.0,11.0,92,0.00,,,0.00,0,Wunderground v.1.15,2013-01-03 06:29:00,
2013-01-03 00:32:00,30.0,28.0,30.18,WNW,291,8.0,9.0,92,0.00,,,0.00,0,Wunderground v.1.15,2013-01-03 06:32:00,
2013-01-03 00:33:00,29.9,27.9,30.18,WNW,288,8.0,9.0,92,0.00,,,0.00,0,Wunderground v.1.15,2013-01-03 06:33:00,
2013-01-03 00:35:00,29.9,27.6,30.18,West,277,7.0,9.0,91,0.00,,,0.00,0,Wunderground v.1.15,2013-01-03 06:35:00,
2013-01-03 00:38:00,29.9,27.6,30.18,West,276,8.0,9.0,91,0.00,,,0.00,0,Wunderground v.1.15,2013-01-03 06:38:00,
2013-01-03 00:39:00,29.9,27.6,30.18,West,276,8.0,9.0,91,0.00,,,0.00,0,Wunderground v.1.15,2013-01-03 06:39:00,
2013-01-03 00:43:00,29.9,27.6,30.18,West,281,8.0,8.0,91,0.00,,,0.00,0,Wunderground v.1.15,2013-01-03 06:43:00,
2013-01-03 00:45:00,29.9,27.6,30.18,West,279,7.0,8.0,91,0.00,,,0.00,0,Wunderground v.1.15,2013-01-03 06:45:00,
2013-01-03 00:46:00,29.8,27.5,30.18,West,281,9.0,9.0,91,0.00,,,0.00,0,Wunderground v.1.15,2013-01-03 06:46:00,
2013-01-03 00:50:00,29.8,27.5,30.18,West,279,8.0,8.0,91,0.00,,,0.00,0,Wunderground v.1.15,2013-01-03 06:50:00,
2013-01-03 00:51:00,29.8,27.5,30.18,WNW,286,7.0,8.0,91,0.00,,,0.00,0,Wunderground v.1.15,2013-01-03 06:51:00,
2013-01-03 00:52:00,29.8,27.5,30.18,WNW,289,7.0,8.0,91,0.00,,,0.00,0,Wunderground v.1.15,2013-01-03 06:52:00,
2013-01-03 00:57:00,29.8,27.5,30.18,WNW,282,10.0,10.0,91,0.00,,,0.00,0,Wunderground v.1.15,2013-01-03 06:57:00,
2013-01-03 00:58:00,29.8,27.5,30.18,WNW,287,10.0,10.0,91,0.00,,,0.00,0,Wunderground v.1.15,2013-01-03 06:58:00,
2013-01-03 00:59:00,29.8,27.5,30.18,WNW,286,10.0,10.0,91,0.00,,,0.00,0,Wunderground v.1.15,2013-01-03 06:59:00,
2013-01-03 01:02:00,29.8,27.5,30.18,WNW,283,9.0,12.0,91,0.00,,,0.00,0,Wunderground v.1.15,2013-01-03 07:02:00,
2013-01-03 01:04:00,29.9,27.6,30.18,WNW,288,14.0,14.0,91,0.00,,,0.00,0,Wunderground v.1.15,2013-01-03 07:04:00,
2013-01-03 01:05:00,29.9,27.6,30.18,WNW,287,11.0,14.0,91,0.00,,,0.00,0,Wunderground v.1.15,2013-01-03 07:05:00,
2013-01-03 01:06:00,30.0,27.7,30.18,WNW,289,9.0,14.0,91,0.00,,,0.00,0,Wunderground v.1.15,2013-01-03 07:06:00,
2013-01-03 01:11:00,30.1,27.8,30.18,WNW,288,11.0,12.0,91,0.00,,,0.00,0,Wunderground v.1.15,2013-01-03 07:11:00,
2013-01-03 01:16:00,30.2,27.9,30.18,WNW,289,12.0,13.0,91,0.00,,,0.00,0,Wunderground v.1.15,2013-01-03 07:16:00,
2013-01-03 01:17:00,30.2,27.9,30.18,WNW,284,10.0,13.0,91,0.00,,,0.00,0,Wunderground v.1.15,2013-01-03 07:17:00,
2013-01-03 01:18:00,30.2,27.9,30.18,WNW,294,9.0,13.0,91,0.00,,,0.00,0,Wunderground v.1.15,2013-01-03 07:18:00,
2013-01-03 01:19:00,30.2,27.6,30.18,WNW,296,10.0,13.0,90,0.00,,,0.00,0,Wunderground v.1.15,2013-01-03 07:19:00,
2013-01-03 01:23:00,30.1,27.5,30.18,WNW,288,9.0,11.0,90,0.00,,,0.00,0,Wunderground v.1.15,2013-01-03 07:23:00,
2013-01-03 01:24:00,30.1,27.5,30.18,WNW,287,11.0,11.0,90,0.00,,,0.00,0,Wunderground v.1.15,2013-01-03 07:24:00,
2013-01-03 01:26:00,30.1,27.5,30.18,WNW,284,9.0,11.0,90,0.00,,,0.00,0,Wunderground v.1.15,2013-01-03 07:26:00,
2013-01-03 01:29:00,30.1,27.8,30.18,WNW,282,11.0,11.0,91,0.00,,,0.00,0,Wunderground v.1.15,2013-01-03 07:29:00,
2013-01-03 01:31:00,30.0,27.7,30.18,WNW,285,9.0,10.0,91,0.00,,,0.00,0,Wunderground v.1.15,2013-01-03 07:31:00,
2013-01-03 01:34:00,30.0,27.4,30.18,WNW,286,9.0,10.0,90,0.00,,,0.00,0,Wunderground v.1.15,2013-01-03 07:34:00,
2013-01-03 01:35:00,30.0,27.4,30.18,WNW,292,9.0,10.0,90,0.00,,,0.00,0,Wunderground v.1.15,2013-01-03 07:35:00,
2013-01-03 01:37:00,30.0,27.4,30.18,WNW,288,10.0,10.0,90,0.00,,,0.00,0,Wunderground v.1.15,2013-01-03 07:37:00,
2013-01-03 01:39:00,30.0,27.7,30.18,WNW,286,9.0,10.0,91,0.00,,,0.00,0,Wunderground v.1.15,2013-01-03 07:39:00,
2013-01-03 01:42:00,29.9,27.6,30.18,WNW,284,10.0,12.0,91,0.00,,,0.00,0,Wunderground v.1.15,2013-01-03 07:42:00,
2013-01-03 01:46:00,30.1,27.8,30.18,WNW,287,11.0,12.0,91,0.00,,,0.00,0,Wunderground v.1.15,2013-01-03 07:46:00,
2013-01-03 01:47:00,30.1,27.8,30.18,WNW,286,11.0,12.0,91,0.00,,,0.00,0,Wunderground v.1.15,2013-01-03 07:47:00,
2013-01-03 01:52:00,30.2,27.9,30.18,West,277,13.0,13.0,91,0.00,,,0.00,0,Wunderground v.1.15,2013-01-03 07:52:00,
2013-01-03 01:53:00,30.2,27.9,30.18,WNW,287,11.0,13.0,91,0.00,,,0.00,0,Wunderground v.1.15,2013-01-03 07:53:00,
2013-01-03 01:54:00,30.3,28.0,30.18,WNW,288,11.0,13.0,91,0.00,,,0.00,0,Wunderground v.1.15,2013-01-03 07:54:00,
2013-01-03 01:59:00,30.3,27.7,30.19,WNW,290,10.0,13.0,90,0.00,,,0.00,0,Wunderground v.1.15,2013-01-03 07:59:00,
2013-01-03 02:01:00,30.4,27.8,30.19,WNW,287,10.0,11.0,90,0.00,,,0.00,0,Wunderground v.1.15,2013-01-03 08:01:00,
2013-01-03 02:03:00,30.3,27.7,30.19,WNW,287,9.0,12.0,90,0.00,,,0.00,0,Wunderground v.1.15,2013-01-03 08:03:00,
2013-01-03 02:06:00,30.3,27.7,30.19,WNW,285,12.0,12.0,90,0.00,,,0.00,0,Wunderground v.1.15,2013-01-03 08:06:00,
2013-01-03 02:07:00,30.3,27.7,30.19,West,281,9.0,12.0,90,0.00,,,0.00,0,Wunderground v.1.15,2013-01-03 08:07:00,
2013-01-03 02:09:00,30.3,27.7,30.19,WNW,284,10.0,12.0,90,0.00,,,0.00,0,Wunderground v.1.15,2013-01-03 08:09:00,
2013-01-03 02:10:00,30.2,27.6,30.19,WNW,287,11.0,11.0,90,0.00,,,0.00,0,Wunderground v.1.15,2013-01-03 08:10:00,
2013-01-03 02:13:00,30.3,27.7,30.19,WNW,288,11.0,12.0,90,0.00,,,0.00,0,Wunderground v.1.15,2013-01-03 08:13:00,
2013-01-03 02:15:00,30.3,27.7,30.19,WNW,288,9.0,12.0,90,0.00,,,0.00,0,Wunderground v.1.15,2013-01-03 08:15:00,
2013-01-03 02:18:00,30.2,27.6,30.19,WNW,282,11.0,12.0,90,0.00,,,0.00,0,Wunderground v.1.15,2013-01-03 08:18:00,
2013-01-03 02:19:00,30.2,27.6,30.19,WNW,290,9.0,12.0,90,0.00,,,0.00,0,Wunderground v.1.15,2013-01-03 08:19:00,
2013-01-03 02:23:00,30.2,27.6,30.19,WNW,286,12.0,12.0,90,0.00,,,0.00,0,Wunderground v.1.15,2013-01-03 08:23:00,
2013-01-03 02:24:00,30.1,27.5,30.19,WNW,287,10.0,12.0,90,0.00,,,0.00,0,Wunderground v.1.15,2013-01-03 08:24:00,
2013-01-03 02:28:00,30.1,27.5,30.19,WNW,286,9.0,12.0,90,0.00,,,0.00,0,Wunderground v.1.15,2013-01-03 08:28:00,
2013-01-03 02:29:00,30.1,27.5,30.19,WNW,287,10.0,12.0,90,0.00,,,0.00,0,Wunderground v.1.15,2013-01-03 08:29:00,
2013-01-03 02:30:00,30.1,27.5,30.19,WNW,288,11.0,12.0,90,0.00,,,0.00,0,Wunderground v.1.15,2013-01-03 08:30:00,
2013-01-03 02:31:00,30.1,27.5,30.19,WNW,288,9.0,12.0,90,0.00,,,0.00,0,Wunderground v.1.15,2013-01-03 08:31:00,
2013-01-03 02:34:00,30.1,27.5,30.19,WNW,284,10.0,13.0,90,0.00,,,0.00,0,Wunderground v.1.15,2013-01-03 08:34:00,
2013-01-03 02:35:00,30.1,27.5,30.19,WNW,285,10.0,13.0,90,0.00,,,0.00,0,Wunderground v.1.15,2013-01-03 08:35:00,
2013-01-03 02:36:00,30.2,27.6,30.19,WNW,284,11.0,13.0,90,0.00,,,0.00,0,Wunderground v.1.15,2013-01-03 08:36:00,
2013-01-03 02:37:00,30.1,27.5,30.19,WNW,291,9.0,13.0,90,0.00,,,0.00,0,Wunderground v.1.15,2013-01-03 08:37:00,
2013-01-03 02:39:00,30.1,27.5,30.19,WNW,291,11.0,13.0,90,0.00,,,0.00,0,Wunderground v.1.15,2013-01-03 08:39:00,
2013-01-03 02:40:00,30.1,27.5,30.19,WNW,292,11.0,11.0,90,0.00,,,0.00,0,Wunderground v.1.15,2013-01-03 08:40:00,
2013-01-03 02:41:00,30.1,27.5,30.19,WNW,284,9.0,11.0,90,0.00,,,0.00,0,Wunderground v.1.15,2013-01-03 08:41:00,
2013-01-03 02:46:00,30.1,27.5,30.20,WNW,286,12.0,12.0,90,0.00,,,0.00,0,Wunderground v.1.15,2013-01-03 08:46:00,
2013-01-03 02:47:00,30.1,27.5,30.20,WNW,288,10.0,12.0,90,0.00,,,0.00,0,Wunderground v.1.15,2013-01-03 08:47:00,
2013-01-03 02:51:00,30.1,27.5,30.20,West,281,11.0,13.0,90,0.00,,,0.00,0,Wunderground v.1.15,2013-01-03 08:51:00,
2013-01-03 02:52:00,30.1,27.5,30.20,WNW,292,10.0,13.0,90,0.00,,,0.00,0,Wunderground v.1.15,2013-01-03 08:52:00,
2013-01-03 02:54:00,30.1,27.5,30.20,WNW,290,12.0,13.0,90,0.00,,,0.00,0,Wunderground v.1.15,2013-01-03 08:54:00,
2013-01-03 02:56:00,30.1,27.5,30.20,WNW,288,13.0,15.0,90,0.00,,,0.00,0,Wunderground v.1.15,2013-01-03 08:56:00,
2013-01-03 02:59:00,30.1,27.5,30.20,WNW,284,14.0,15.0,90,0.00,,,0.00,0,Wunderground v.1.15,2013-01-03 08:59:00,
2013-01-03 03:01:00,30.1,27.5,30.20,WNW,292,12.0,12.0,90,0.00,,,0.00,0,Wunderground v.1.15,2013-01-03 09:01:00,
2013-01-03 03:04:00,30.0,27.4,30.20,WNW,285,14.0,14.0,90,0.00,,,0.00,0,Wunderground v.1.15,2013-01-03 09:04:00,
2013-01-03 03:06:00,30.0,27.4,30.20,WNW,292,11.0,14.0,90,0.00,,,0.00,0,Wunderground v.1.15,2013-01-03 09:06:00,
2013-01-03 03:09:00,30.0,27.4,30.20,WNW,292,14.0,15.0,90,0.00,,,0.00,0,Wunderground v.1.15,2013-01-03 09:09:00,
2013-01-03 03:10:00,30.0,27.4,30.20,WNW,293,14.0,14.0,90,0.00,,,0.00,0,Wunderground v.1.15,2013-01-03 09:10:00,
2013-01-03 03:11:00,29.9,27.3,30.20,WNW,290,14.0,14.0,90,0.00,,,0.00,0,Wunderground v.1.15,2013-01-03 09:11:00,
2013-01-03 03:12:00,30.0,27.4,30.20,WNW,288,14.0,16.0,90,0.00,,,0.00,0,Wunderground v.1.15,2013-01-03 09:12:00,
2013-01-03 03:14:00,30.0,27.4,30.20,WNW,293,13.0,16.0,90,0.00,,,0.00,0,Wunderground v.1.15,2013-01-03 09:14:00,
2013-01-03 03:17:00,30.0,27.4,30.20,WNW,293,12.0,16.0,90,0.00,,,0.00,0,Wunderground v.1.15,2013-01-03 09:17:00,
2013-01-03 03:18:00,29.9,27.3,30.20,WNW,290,14.0,16.0,90,0.00,,,0.00,0,Wunderground v.1.15,2013-01-03 09:18:00,
2013-01-03 03:19:00,29.9,27.3,30.20,WNW,294,12.0,16.0,90,0.00,,,0.00,0,Wunderground v.1.15,2013-01-03 09:19:00,
2013-01-03 03:21:00,29.9,27.3,30.20,WNW,293,11.0,13.0,90,0.00,,,0.00,0,Wunderground v.1.15,2013-01-03 09:21:00,
2013-01-03 03:24:00,29.9,27.3,30.20,WNW,292,11.0,15.0,90,0.00,,,0.00,0,Wunderground v.1.15,2013-01-03 09:24:00,
2013-01-03 03:25:00,29.8,27.2,30.20,WNW,293,9.0,15.0,90,0.00,,,0.00,0,Wunderground v.1.15,2013-01-03 09:25:00,
2013-01-03 03:26:00,29.8,27.2,30.20,WNW,294,9.0,15.0,90,0.00,,,0.00,0,Wunderground v.1.15,2013-01-03 09:26:00,
2013-01-03 03:29:00,29.8,27.2,30.20,WNW,294,11.0,15.0,90,0.00,,,0.00,0,Wunderground v.1.15,2013-01-03 09:29:00,
2013-01-03 03:30:00,29.8,27.2,30.20,WNW,291,12.0,12.0,90,0.00,,,0.00,0,Wunderground v.1.15,2013-01-03 09:30:00,
2013-01-03 03:31:00,29.7,27.1,30.20,WNW,288,12.0,12.0,90,0.00,,,0.00,0,Wunderground v.1.15,2013-01-03 09:31:00,
2013-01-03 03:33:00,29.7,27.1,30.20,WNW,288,14.0,15.0,90,0.00,,,0.00,0,Wunderground v.1.15,2013-01-03 09:33:00,
2013-01-03 03:34:00,29.7,27.1,30.20,WNW,294,13.0,15.0,90,0.00,,,0.00,0,Wunderground v.1.15,2013-01-03 09:34:00,
2013-01-03 03:36:00,29.7,27.1,30.20,WNW,295,11.0,16.0,90,0.00,,,0.00,0,Wunderground v.1.15,2013-01-03 09:36:00,
2013-01-03 03:40:00,29.6,27.3,30.20,WNW,290,10.0,16.0,91,0.00,,,0.00,0,Wunderground v.1.15,2013-01-03 09:40:00,
2013-01-03 03:41:00,29.6,27.3,30.20,WNW,296,11.0,13.0,91,0.00,,,0.00,0,Wunderground v.1.15,2013-01-03 09:41:00,
2013-01-03 03:42:00,29.6,27.3,30.20,WNW,296,11.0,13.0,91,0.00,,,0.00,0,Wunderground v.1.15,2013-01-03 09:42:00,
2013-01-03 03:46:00,29.6,27.3,30.20,WNW,296,11.0,13.0,91,0.00,,,0.00,0,Wunderground v.1.15,2013-01-03 09:46:00,
2013-01-03 03:47:00,29.6,27.3,30.20,WNW,290,13.0,13.0,91,0.00,,,0.00,0,Wunderground v.1.15,2013-01-03 09:47:00,
2013-01-03 03:48:00,29.6,27.3,30.20,WNW,296,11.0,13.0,91,0.00,,,0.00,0,Wunderground v.1.15,2013-01-03 09:48:00,
2013-01-03 03:52:00,29.6,27.3,30.20,WNW,293,11.0,14.0,91,0.00,,,0.00,0,Wunderground v.1.15,2013-01-03 09:52:00,
2013-01-03 03:53:00,29.6,27.3,30.20,WNW,293,11.0,14.0,91,0.00,,,0.00,0,Wunderground v.1.15,2013-01-03 09:53:00,
2013-01-03 03:54:00,29.6,27.3,30.20,WNW,289,11.0,14.0,91,0.00,,,0.00,0,Wunderground v.1.15,2013-01-03 09:54:00,
2013-01-03 03:58:00,29.6,27.3,30.20,WNW,291,10.0,14.0,91,0.00,,,0.00,0,Wunderground v.1.15,2013-01-03 09:58:00,
2013-01-03 03:59:00,29.6,27.3,30.20,WNW,293,12.0,14.0,91,0.00,,,0.00,0,Wunderground v.1.15,2013-01-03 09:59:00,
2013-01-03 04:00:00,29.6,27.3,30.20,WNW,297,11.0,13.0,91,0.00,,,0.00,0,Wunderground v.1.15,2013-01-03 10:00:00,
2013-01-03 04:03:00,29.6,27.3,30.20,WNW,293,12.0,17.0,91,0.00,,,0.00,0,Wunderground v.1.15,2013-01-03 10:03:00,
2013-01-03 04:07:00,29.6,27.3,30.20,WNW,294,14.0,17.0,91,0.00,,,0.00,0,Wunderground v.1.15,2013-01-03 10:07:00,
2013-01-03 04:08:00,29.6,27.3,30.20,WNW,292,12.0,17.0,91,0.00,,,0.00,0,Wunderground v.1.15,2013-01-03 10:08:00,
2013-01-03 04:11:00,29.6,27.3,30.20,WNW,296,13.0,13.0,91,0.00,,,0.00,0,Wunderground v.1.15,2013-01-03 10:11:00,
2013-01-03 04:13:00,29.6,27.3,30.20,WNW,286,14.0,14.0,91,0.00,,,0.00,0,Wunderground v.1.15,2013-01-03 10:13:00,
2013-01-03 04:14:00,29.6,27.3,30.20,WNW,288,10.0,14.0,91,0.00,,,0.00,0,Wunderground v.1.15,2013-01-03 10:14:00,
2013-01-03 04:17:00,29.6,27.3,30.20,WNW,284,12.0,14.0,91,0.00,,,0.00,0,Wunderground v.1.15,2013-01-03 10:17:00,
2013-01-03 04:19:00,29.6,27.3,30.20,WNW,292,12.0,14.0,91,0.00,,,0.00,0,Wunderground v.1.15,2013-01-03 10:19:00,
2013-01-03 04:22:00,29.6,27.3,30.20,West,281,13.0,13.0,91,0.00,,,0.00,0,Wunderground v.1.15,2013-01-03 10:22:00,
2013-01-03 04:24:00,29.6,27.3,30.20,West,281,12.0,13.0,91,0.00,,,0.00,0,Wunderground v.1.15,2013-01-03 10:24:00,
2013-01-03 04:26:00,29.5,27.2,30.20,WNW,288,12.0,13.0,91,0.00,,,0.00,0,Wunderground v.1.15,2013-01-03 10:26:00,
2013-01-03 04:29:00,29.5,27.2,30.20,WNW,283,14.0,15.0,91,0.00,,,0.00,0,Wunderground v.1.15,2013-01-03 10:29:00,
2013-01-03 04:30:00,29.5,27.2,30.20,WNW,286,12.0,12.0,91,0.00,,,0.00,0,Wunderground v.1.15,2013-01-03 10:30:00,
2013-01-03 04:33:00,29.5,27.2,30.20,WNW,286,14.0,15.0,91,0.00,,,0.00,0,Wunderground v.1.15,2013-01-03 10:33:00,
2013-01-03 04:35:00,29.6,27.3,30.21,WNW,282,14.0,15.0,91,0.00,,,0.00,0,Wunderground v.1.15,2013-01-03 10:35:00,
2013-01-03 04:38:00,29.6,27.3,30.21,WNW,285,12.0,15.0,91,0.00,,,0.00,0,Wunderground v.1.15,2013-01-03 10:38:00,
2013-01-03 04:40:00,29.7,27.1,30.21,West,281,11.0,12.0,90,0.00,,,0.00,0,Wunderground v.1.15,2013-01-03 10:40:00,
2013-01-03 04:44:00,29.7,27.1,30.21,West,277,11.0,12.0,90,0.00,,,0.00,0,Wunderground v.1.15,2013-01-03 10:44:00,
2013-01-03 04:46:00,29.6,27.0,30.21,West,273,14.0,14.0,90,0.00,,,0.00,0,Wunderground v.1.15,2013-01-03 10:46:00,
2013-01-03 04:47:00,29.7,27.1,30.21,West,275,11.0,14.0,90,0.00,,,0.00,0,Wunderground v.1.15,2013-01-03 10:47:00,
2013-01-03 04:49:00,29.7,27.1,30.21,West,280,12.0,14.0,90,0.00,,,0.00,0,Wunderground v.1.15,2013-01-03 10:49:00,
2013-01-03 04:51:00,29.7,27.4,30.21,West,278,10.0,12.0,91,0.00,,,0.00,0,Wunderground v.1.15,2013-01-03 10:51:00,
2013-01-03 04:52:00,29.7,27.4,30.21,West,278,9.0,12.0,91,0.00,,,0.00,0,Wunderground v.1.15,2013-01-03 10:52:00,
2013-01-03 04:57:00,29.7,27.4,30.21,West,279,9.0,12.0,91,0.00,,,0.00,0,Wunderground v.1.15,2013-01-03 10:57:00,
2013-01-03 04:58:00,29.7,27.4,30.21,West,277,12.0,12.0,91,0.00,,,0.00,0,Wunderground v.1.15,2013-01-03 10:58:00,
2013-01-03 04:59:00,29.6,27.3,30.21,West,278,12.0,12.0,91,0.00,,,0.00,0,Wunderground v.1.15,2013-01-03 10:59:00,
2013-01-03 05:01:00,29.6,27.3,30.21,WNW,284,13.0,13.0,91,0.00,,,0.00,0,Wunderground v.1.15,2013-01-03 11:01:00,
2013-01-03 05:02:00,29.6,27.3,30.21,WNW,282,11.0,13.0,91,0.00,,,0.00,0,Wunderground v.1.15,2013-01-03 11:02:00,
2013-01-03 05:03:00,29.7,27.4,30.21,West,281,13.0,15.0,91,0.00,,,0.00,0,Wunderground v.1.15,2013-01-03 11:03:00,
2013-01-03 05:05:00,29.6,27.3,30.21,West,277,11.0,15.0,91,0.00,,,0.00,0,Wunderground v.1.15,2013-01-03 11:05:00,
2013-01-03 05:08:00,29.7,27.4,30.21,WNW,288,11.0,15.0,91,0.00,,,0.00,0,Wunderground v.1.15,2013-01-03 11:08:00,
2013-01-03 05:09:00,29.7,27.4,30.21,West,281,14.0,15.0,91,0.00,,,0.00,0,Wunderground v.1.15,2013-01-03 11:09:00,
2013-01-03 05:10:00,29.7,27.4,30.21,WNW,283,12.0,13.0,91,0.00,,,0.00,0,Wunderground v.1.15,2013-01-03 11:10:00,
2013-01-03 05:12:00,29.7,27.4,30.21,WNW,282,12.0,13.0,91,0.00,,,0.00,0,Wunderground v.1.15,2013-01-03 11:12:00,
2013-01-03 05:16:00,29.7,27.4,30.21,West,275,13.0,13.0,91,0.00,,,0.00,0,Wunderground v.1.15,2013-01-03 11:16:00,
2013-01-03 05:17:00,29.7,27.4,30.21,West,273,11.0,15.0,91,0.00,,,0.00,0,Wunderground v.1.15,2013-01-03 11:17:00,
2013-01-03 05:18:00,29.7,27.4,30.22,West,279,11.0,15.0,91,0.00,,,0.00,0,Wunderground v.1.15,2013-01-03 11:18:00,
2013-01-03 05:21:00,29.8,27.5,30.22,West,273,15.0,15.0,91,0.00,,,0.00,0,Wunderground v.1.15,2013-01-03 11:21:00,
2013-01-03 05:22:00,29.8,27.5,30.22,West,273,11.0,15.0,91,0.00,,,0.00,0,Wunderground v.1.15,2013-01-03 11:22:00,
2013-01-03 05:23:00,29.8,27.5,30.22,West,279,12.0,15.0,91,0.00,,,0.00,0,Wunderground v.1.15,2013-01-03 11:23:00,
2013-01-03 05:27:00,29.8,27.5,30.22,West,276,11.0,15.0,91,0.00,,,0.00,0,Wunderground v.1.15,2013-01-03 11:27:00,
2013-01-03 05:28:00,29.8,27.5,30.22,West,277,12.0,15.0,91,0.00,,,0.00,0,Wunderground v.1.15,2013-01-03 11:28:00,
2013-01-03 05:32:00,29.8,27.5,30.22,West,279,11.0,12.0,91,0.00,,,0.00,0,Wunderground v.1.15,2013-01-03 11:32:00,
2013-01-03 05:33:00,29.8,27.5,30.22,West,275,11.0,12.0,91,0.00,,,0.00,0,Wunderground v.1.15,2013-01-03 11:33:00,
2013-01-03 05:34:00,29.8,27.5,30.22,West,277,11.0,13.0,91,0.00,,,0.00,0,Wunderground v.1.15,2013-01-03 11:34:00,
2013-01-03 05:38:00,29.8,27.5,30.23,NW,311,11.0,15.0,91,0.00,,,0.00,0,Wunderground v.1.15,2013-01-03 11:38:00,
2013-01-03 05:39:00,29.7,27.1,30.23,WNW,301,13.0,15.0,90,0.00,,,0.00,0,Wunderground v.1.15,2013-01-03 11:39:00,
2013-01-03 05:41:00,29.5,26.9,30.23,NW,306,10.0,11.0,90,0.00,,,0.00,0,Wunderground v.1.15,2013-01-03 11:41:00,
2013-01-03 05:44:00,29.3,26.5,30.23,NW,317,4.0,11.0,89,0.00,,,0.00,0,Wunderground v.1.15,2013-01-03 11:44:00,
2013-01-03 05:46:00,29.2,26.4,30.23,North,355,4.0,11.0,89,0.00,,,0.00,0,Wunderground v.1.15,2013-01-03 11:46:00,
2013-01-03 05:48:00,29.1,26.3,30.23,NNE,15,3.0,11.0,89,0.00,,,0.00,0,Wunderground v.1.15,2013-01-03 11:48:00,
2013-01-03 05:50:00,29.0,26.2,30.23,NW,320,3.0,5.0,89,0.00,,,0.00,0,Wunderground v.1.15,2013-01-03 11:50:00,
2013-01-03 05:52:00,28.9,26.1,30.23,NW,313,3.0,6.0,89,0.00,,,0.00,0,Wunderground v.1.15,2013-01-03 11:52:00,
2013-01-03 05:54:00,28.8,26.0,30.23,NNW,335,7.0,8.0,89,0.00,,,0.00,0,Wunderground v.1.15,2013-01-03 11:54:00,
2013-01-03 05:55:00,28.7,25.9,30.23,NNW,331,6.0,8.0,89,0.00,,,0.00,0,Wunderground v.1.15,2013-01-03 11:55:00,
2013-01-03 05:57:00,28.7,25.9,30.23,NW,315,6.0,8.0,89,0.00,,,0.00,0,Wunderground v.1.15,2013-01-03 11:57:00,
2013-01-03 06:01:00,28.4,25.6,30.24,NNW,347,6.0,10.0,89,0.00,,,0.00,0,Wunderground v.1.15,2013-01-03 12:01:00,
2013-01-03 06:02:00,28.4,25.6,30.24,NNE,19,7.0,10.0,89,0.00,,,0.00,0,Wunderground v.1.15,2013-01-03 12:02:00,
2013-01-03 06:03:00,28.3,25.5,30.24,NNE,30,5.0,10.0,89,0.00,,,0.00,0,Wunderground v.1.15,2013-01-03 12:03:00,
2013-01-03 06:07:00,27.8,24.7,30.25,NNE,17,6.0,10.0,88,0.00,,,0.00,0,Wunderground v.1.15,2013-01-03 12:07:00,
2013-01-03 06:08:00,27.6,24.5,30.25,NNW,333,1.0,10.0,88,0.00,,,0.00,0,Wunderground v.1.15,2013-01-03 12:08:00,
2013-01-03 06:12:00,27.0,24.2,30.25,NNW,330,0.0,4.0,89,0.00,,,0.00,0,Wunderground v.1.15,2013-01-03 12:12:00,
2013-01-03 06:13:00,26.9,24.1,30.25,NNE,19,5.0,6.0,89,0.00,,,0.00,0,Wunderground v.1.15,2013-01-03 12:13:00,
2013-01-03 06:16:00,26.6,23.8,30.25,NNE,17,5.0,7.0,89,0.00,,,0.00,0,Wunderground v.1.15,2013-01-03 12:16:00,
2013-01-03 06:18:00,26.5,23.4,30.25,NNE,22,4.0,9.0,88,0.00,,,0.00,0,Wunderground v.1.15,2013-01-03 12:18:00,
2013-01-03 06:19:00,26.3,23.2,30.25,NNW,335,5.0,9.0,88,0.00,,,0.00,0,Wunderground v.1.15,2013-01-03 12:19:00,
2013-01-03 06:23:00,25.8,22.7,30.25,NNE,23,9.0,9.0,88,0.00,,,0.00,0,Wunderground v.1.15,2013-01-03 12:23:00,
2013-01-03 06:24:00,25.6,22.5,30.25,NNE,17,5.0,9.0,88,0.00,,,0.00,0,Wunderground v.1.15,2013-01-03 12:24:00,
2013-01-03 06:25:00,25.6,22.5,30.26,NNE,31,8.0,9.0,88,0.00,,,0.00,0,Wunderground v.1.15,2013-01-03 12:25:00,
2013-01-03 06:28:00,25.2,21.9,30.26,NE,44,6.0,10.0,87,0.00,,,0.00,0,Wunderground v.1.15,2013-01-03 12:28:00,
2013-01-03 06:30:00,24.9,21.8,30.26,NNE,30,8.0,8.0,88,0.00,,,0.00,0,Wunderground v.1.15,2013-01-03 12:30:00,
2013-01-03 06:31:00,24.8,21.8,30.26,NNE,13,4.0,8.0,88,0.00,,,0.00,0,Wunderground v.1.15,2013-01-03 12:31:00,
2013-01-03 06:34:00,24.4,21.1,30.26,NNE,24,5.0,9.0,87,0.00,,,0.00,0,Wunderground v.1.15,2013-01-03 12:34:00,
2013-01-03 06:36:00,24.3,21.0,30.26,North,355,6.0,9.0,87,0.00,,,0.00,0,Wunderground v.1.15,2013-01-03 12:36:00,
2013-01-03 06:37:00,24.2,20.9,30.26,NNE,12,3.0,9.0,87,0.00,,,0.00,0,Wunderground v.1.15,2013-01-03 12:37:00,
2013-01-03 06:40:00,24.0,20.7,30.26,NNE,28,3.0,4.0,87,0.00,,,0.00,0,Wunderground v.1.15,2013-01-03 12:40:00,
2013-01-03 06:41:00,23.9,20.6,30.27,NNE,22,2.0,4.0,87,0.00,,,0.00,0,Wunderground v.1.15,2013-01-03 12:41:00,
2013-01-03 06:42:00,23.9,20.9,30.27,NNE,16,2.0,5.0,88,0.00,,,0.00,0,Wunderground v.1.15,2013-01-03 12:42:00,
2013-01-03 06:45:00,23.7,20.7,30.27,NNW,347,2.0,8.0,88,0.00,,,0.00,0,Wunderground v.1.15,2013-01-03 12:45:00,
2013-01-03 06:46:00,23.6,20.6,30.27,NNE,15,1.0,8.0,88,0.00,,,0.00,0,Wunderground v.1.15,2013-01-03 12:46:00,
2013-01-03 06:47:00,23.6,20.6,30.27,NNE,17,0.0,8.0,88,0.00,,,0.00,0,Wunderground v.1.15,2013-01-03 12:47:00,
2013-01-03 06:48:00,23.6,20.6,30.27,NNE,17,0.0,8.0,88,0.00,,,0.00,0,Wunderground v.1.15,2013-01-03 12:48:00,
2013-01-03 06:51:00,23.5,20.5,30.27,NNW,327,3.0,3.0,88,0.00,,,0.00,0,Wunderground v.1.15,2013-01-03 12:51:00,
2013-01-03 06:52:00,23.5,20.5,30.27,NW,317,7.0,7.0,88,0.00,,,0.00,0,Wunderground v.1.15,2013-01-03 12:52:00,
2013-01-03 06:53:00,23.5,20.5,30.27,North,351,4.0,7.0,88,0.00,,,0.00,0,Wunderground v.1.15,2013-01-03 12:53:00,
2013-01-03 06:57:00,23.4,20.4,30.27,NW,323,3.0,11.0,88,0.00,,,0.00,0,Wunderground v.1.15,2013-01-03 12:57:00,
2013-01-03 06:58:00,23.4,20.4,30.27,WNW,300,4.0,11.0,88,0.00,,,0.00,0,Wunderground v.1.15,2013-01-03 12:58:00,
2013-01-03 07:00:00,23.3,20.3,30.27,NW,310,5.0,9.0,88,0.00,,,0.00,0,Wunderground v.1.15,2013-01-03 13:00:00,
2013-01-03 07:03:00,23.3,20.3,30.27,NW,317,6.0,9.0,88,0.00,,,0.00,0,Wunderground v.1.15,2013-01-03 13:03:00,
2013-01-03 07:04:00,23.3,20.3,30.27,NNW,330,4.0,9.0,88,0.00,,,0.00,0,Wunderground v.1.15,2013-01-03 13:04:00,
2013-01-03 07:05:00,23.3,20.3,30.27,North,355,4.0,9.0,88,0.00,,,0.00,0,Wunderground v.1.15,2013-01-03 13:05:00,
2013-01-03 07:07:00,23.3,20.3,30.27,North,355,5.0,9.0,88,0.00,,,0.00,0,Wunderground v.1.15,2013-01-03 13:07:00,
2013-01-03 07:08:00,23.3,20.3,30.27,NW,319,10.0,10.0,88,0.00,,,0.00,0,Wunderground v.1.15,2013-01-03 13:08:00,
2013-01-03 07:10:00,23.3,20.5,30.27,NNW,327,7.0,7.0,89,0.00,,,0.00,0,Wunderground v.1.15,2013-01-03 13:10:00,
2013-01-03 07:11:00,23.3,20.5,30.27,NW,322,9.0,9.0,89,0.00,,,0.00,0,Wunderground v.1.15,2013-01-03 13:11:00,
2013-01-03 07:13:00,23.3,20.5,30.27,NW,319,7.0,11.0,89,0.00,,,0.00,0,Wunderground v.1.15,2013-01-03 13:13:00,
2013-01-03 07:14:00,23.3,20.5,30.28,NNW,338,9.0,12.0,89,0.00,,,0.00,0,Wunderground v.1.15,2013-01-03 13:14:00,
2013-01-03 07:16:00,23.3,20.5,30.28,NNW,343,4.0,12.0,89,0.00,,,0.00,0,Wunderground v.1.15,2013-01-03 13:16:00,
2013-01-03 07:19:00,23.4,20.6,30.28,NNW,334,8.0,12.0,89,0.00,,,0.00,0,Wunderground v.1.15,2013-01-03 13:19:00,
2013-01-03 07:21:00,23.4,20.6,30.28,NNW,328,4.0,9.0,89,0.00,,,0.00,0,Wunderground v.1.15,2013-01-03 13:21:00,
2013-01-03 07:23:00,23.4,20.6,30.28,NW,313,5.0,9.0,89,0.00,,,0.00,0,Wunderground v.1.15,2013-01-03 13:23:00,
2013-01-03 07:25:00,23.4,20.6,30.28,NNW,342,2.0,9.0,89,0.00,,,0.00,0,Wunderground v.1.15,2013-01-03 13:25:00,
2013-01-03 07:27:00,23.3,20.5,30.28,NNE,15,3.0,9.0,89,0.00,,,0.00,0,Wunderground v.1.15,2013-01-03 13:27:00,
2013-01-03 07:29:00,23.3,20.5,30.29,NNW,332,3.0,9.0,89,0.00,,,0.00,0,Wunderground v.1.15,2013-01-03 13:29:00,
2013-01-03 07:31:00,23.3,20.5,30.29,NNE,13,7.0,8.0,89,0.00,,,0.00,0,Wunderground v.1.15,2013-01-03 13:31:00,
2013-01-03 07:32:00,23.2,20.2,30.29,North,5,1.0,8.0,88,0.00,,,0.00,0,Wunderground v.1.15,2013-01-03 13:32:00,
2013-01-03 07:33:00,23.2,20.2,30.29,NNW,339,11.0,11.0,88,0.00,,,0.00,0,Wunderground v.1.15,2013-01-03 13:33:00,
2013-01-03 07:34:00,23.1,20.1,30.29,NW,319,1.0,11.0,88,0.00,,,0.00,0,Wunderground v.1.15,2013-01-03 13:34:00,
2013-01-03 07:37:00,23.0,20.0,30.29,NW,324,5.0,11.0,88,0.00,,,0.00,0,Wunderground v.1.15,2013-01-03 13:37:00,
2013-01-03 07:38:00,22.9,19.9,30.29,NW,325,5.0,11.0,88,0.00,,,0.00,0,Wunderground v.1.15,2013-01-03 13:38:00,
2013-01-03 07:40:00,22.9,19.9,30.29,NNW,331,3.0,9.0,88,0.00,,,0.00,0,Wunderground v.1.15,2013-01-03 13:40:00,
2013-01-03 07:42:00,22.9,19.9,30.29,NW,319,9.0,10.0,88,0.00,,,0.00,0,Wunderground v.1.15,2013-01-03 13:42:00,
2013-01-03 07:43:00,22.8,19.8,30.29,NW,315,6.0,10.0,88,0.00,,,0.00,0,Wunderground v.1.15,2013-01-03 13:43:00,
2013-01-03 07:48:00,22.7,19.7,30.29,North,360,6.0,10.0,88,0.00,,,0.00,5,Wunderground v.1.15,2013-01-03 13:48:00,
2013-01-03 07:49:00,22.7,19.7,30.29,North,9,5.0,10.0,88,0.00,,,0.00,5,Wunderground v.1.15,2013-01-03 13:49:00,
2013-01-03 07:50:00,22.6,19.6,30.29,NNW,332,2.0,5.0,88,0.00,,,0.00,5,Wunderground v.1.15,2013-01-03 13:50:00,
2013-01-03 07:53:00,22.6,19.6,30.30,NW,322,4.0,11.0,88,0.00,,,0.00,7,Wunderground v.1.15,2013-01-03 13:53:00,
2013-01-03 07:54:00,22.6,19.6,30.30,NNW,331,5.0,11.0,88,0.00,,,0.00,7,Wunderground v.1.15,2013-01-03 13:54:00,
2013-01-03 07:55:00,22.6,19.6,30.30,NW,322,5.0,11.0,88,0.00,,,0.00,9,Wunderground v.1.15,2013-01-03 13:55:00,
2013-01-03 07:58:00,22.5,19.5,30.30,NW,317,7.0,12.0,88,0.00,,,0.00,9,Wunderground v.1.15,2013-01-03 13:58:00,
2013-01-03 08:00:00,22.5,19.5,30.30,NW,316,10.0,10.0,88,0.00,,,0.00,11,Wunderground v.1.15,2013-01-03 14:00:00,
2013-01-03 08:01:00,22.5,19.2,30.30,NW,315,11.0,11.0,87,0.00,,,0.00,11,Wunderground v.1.15,2013-01-03 14:01:00,
2013-01-03 08:03:00,22.4,19.4,30.30,NW,317,8.0,16.0,88,0.00,,,0.00,12,Wunderground v.1.15,2013-01-03 14:03:00,
2013-01-03 08:04:00,22.4,19.1,30.30,NNW,331,8.0,16.0,87,0.00,,,0.00,12,Wunderground v.1.15,2013-01-03 14:04:00,
2013-01-03 08:05:00,22.4,19.1,30.30,NW,315,14.0,16.0,87,0.00,,,0.00,12,Wunderground v.1.15,2013-01-03 14:05:00,
2013-01-03 08:07:00,22.2,18.7,30.30,NW,317,16.0,16.0,86,0.00,,,0.00,14,Wunderground v.1.15,2013-01-03 14:07:00,
2013-01-03 08:10:00,21.8,18.3,30.31,NNW,342,6.0,13.0,86,0.00,,,0.00,19,Wunderground v.1.15,2013-01-03 14:10:00,
2013-01-03 08:11:00,21.7,17.9,30.31,NW,320,15.0,16.0,85,0.00,,,0.00,19,Wunderground v.1.15,2013-01-03 14:11:00,
2013-01-03 08:12:00,21.5,17.7,30.31,NW,314,8.0,16.0,85,0.00,,,0.00,23,Wunderground v.1.15,2013-01-03 14:12:00,
2013-01-03 08:15:00,21.0,16.9,30.31,NW,320,11.0,16.0,84,0.00,,,0.00,26,Wunderground v.1.15,2013-01-03 14:15:00,
2013-01-03 08:17:00,20.7,16.6,30.31,NW,318,10.0,16.0,84,0.00,,,0.00,30,Wunderground v.1.15,2013-01-03 14:17:00,
2013-01-03 08:18:00,20.4,16.3,30.31,NW,321,10.0,16.0,84,0.00,,,0.00,33,Wunderground v.1.15,2013-01-03 14:18:00,
2013-01-03 08:20:00,20.3,16.2,30.31,NW,324,5.0,11.0,84,0.00,,,0.00,33,Wunderground v.1.15,2013-01-03 14:20:00,
2013-01-03 08:22:00,20.0,15.9,30.31,NW,323,9.0,12.0,84,0.00,,,0.00,37,Wunderground v.1.15,2013-01-03 14:22:00,
2013-01-03 08:25:00,19.6,15.3,30.32,NNW,333,7.0,17.0,83,0.00,,,0.00,39,Wunderground v.1.15,2013-01-03 14:25:00,
2013-01-03 08:26:00,19.5,15.2,30.32,NNW,329,10.0,17.0,83,0.00,,,0.00,39,Wunderground v.1.15,2013-01-03 14:26:00,
2013-01-03 08:27:00,19.3,14.7,30.32,NW,323,5.0,17.0,82,0.00,,,0.00,40,Wunderground v.1.15,2013-01-03 14:27:00,
2013-01-03 08:31:00,18.7,14.1,30.32,NW,313,6.0,16.0,82,0.00,,,0.00,49,Wunderground v.1.15,2013-01-03 14:31:00,
2013-01-03 08:32:00,18.6,14.0,30.32,NW,319,9.0,16.0,82,0.00,,,0.00,49,Wunderground v.1.15,2013-01-03 14:32:00,
2013-01-03 08:35:00,18.1,13.3,30.33,NNW,329,9.0,16.0,81,0.00,,,0.00,53,Wunderground v.1.15,2013-01-03 14:35:00,
2013-01-03 08:37:00,17.7,13.1,30.33,NW,310,14.0,16.0,82,0.00,,,0.00,70,Wunderground v.1.15,2013-01-03 14:37:00,
2013-01-03 08:39:00,17.5,12.7,30.33,NW,319,15.0,16.0,81,0.00,,,0.00,76,Wunderground v.1.15,2013-01-03 14:39:00,
2013-01-03 08:40:00,17.4,12.8,30.33,NW,319,12.0,12.0,82,0.00,,,0.00,76,Wunderground v.1.15,2013-01-03 14:40:00,
2013-01-03 08:43:00,17.1,12.6,30.33,NW,314,12.0,14.0,82,0.00,,,0.00,86,Wunderground v.1.15,2013-01-03 14:43:00,
2013-01-03 08:44:00,17.1,12.6,30.33,NW,316,12.0,14.0,82,0.00,,,0.00,88,Wunderground v.1.15,2013-01-03 14:44:00,
2013-01-03 08:45:00,17.0,12.5,30.33,NW,318,11.0,14.0,82,0.00,,,0.00,91,Wunderground v.1.15,2013-01-03 14:45:00,
2013-01-03 08:46:00,16.9,12.4,30.33,NW,322,10.0,14.0,82,0.00,,,0.00,93,Wunderground v.1.15,2013-01-03 14:46:00,
2013-01-03 08:48:00,16.7,12.2,30.33,NW,309,12.0,14.0,82,0.00,,,0.00,100,Wunderground v.1.15,2013-01-03 14:48:00,
2013-01-03 08:50:00,16.7,12.2,30.33,NW,321,11.0,14.0,82,0.00,,,0.00,102,Wunderground v.1.15,2013-01-03 14:50:00,
2013-01-03 08:53:00,16.5,12.0,30.33,NW,319,10.0,14.0,82,0.00,,,0.00,114,Wunderground v.1.15,2013-01-03 14:53:00,
2013-01-03 08:54:00,16.4,11.9,30.33,NW,317,8.0,14.0,82,0.00,,,0.00,118,Wunderground v.1.15,2013-01-03 14:54:00,
2013-01-03 08:57:00,16.3,12.0,30.33,NW,315,11.0,14.0,83,0.00,,,0.00,125,Wunderground v.1.15,2013-01-03 14:57:00,
2013-01-03 08:58:00,16.2,11.9,30.33,NW,324,8.0,14.0,83,0.00,,,0.00,130,Wunderground v.1.15,2013-01-03 14:58:00,
2013-01-03 09:00:00,16.2,11.9,30.33,NW,314,10.0,12.0,83,0.00,,,0.00,132,Wunderground v.1.15,2013-01-03 15:00:00,
2013-01-03 09:03:00,16.1,11.8,30.34,NW,309,11.0,14.0,83,0.00,,,0.00,142,Wunderground v.1.15,2013-01-03 15:03:00,
2013-01-03 09:05:00,16.1,11.8,30.34,WNW,300,14.0,14.0,83,0.00,,,0.00,148,Wunderground v.1.15,2013-01-03 15:05:00,
2013-01-03 09:07:00,16.1,11.8,30.34,NW,309,11.0,14.0,83,0.00,,,0.00,155,Wunderground v.1.15,2013-01-03 15:07:00,
2013-01-03 09:09:00,16.1,11.6,30.34,NW,309,13.0,14.0,82,0.00,,,0.00,163,Wunderground v.1.15,2013-01-03 15:09:00,
2013-01-03 09:10:00,16.1,11.6,30.34,NW,308,16.0,16.0,82,0.00,,,0.00,163,Wunderground v.1.15,2013-01-03 15:10:00,
2013-01-03 09:11:00,16.0,11.5,30.34,NW,306,16.0,16.0,82,0.00,,,0.00,165,Wunderground v.1.15,2013-01-03 15:11:00,
2013-01-03 09:14:00,15.9,11.4,30.34,NW,317,13.0,16.0,82,0.00,,,0.00,176,Wunderground v.1.15,2013-01-03 15:14:00,
2013-01-03 09:15:00,15.9,11.4,30.34,NW,311,16.0,16.0,82,0.00,,,0.00,178,Wunderground v.1.15,2013-01-03 15:15:00,
2013-01-03 09:16:00,15.8,11.0,30.34,NW,304,16.0,17.0,81,0.00,,,0.00,183,Wunderground v.1.15,2013-01-03 15:16:00,
2013-01-03 09:19:00,15.8,11.0,30.34,NW,308,15.0,17.0,81,0.00,,,0.00,190,Wunderground v.1.15,2013-01-03 15:19:00,
2013-01-03 09:20:00,15.8,11.0,30.34,NW,306,13.0,14.0,81,0.00,,,0.00,190,Wunderground v.1.15,2013-01-03 15:20:00,
2013-01-03 09:21:00,15.7,10.9,30.35,NW,309,12.0,14.0,81,0.00,,,0.00,199,Wunderground v.1.15,2013-01-03 15:21:00,
2013-01-03 09:23:00,15.7,10.9,30.34,NW,309,13.0,14.0,81,0.00,,,0.00,200,Wunderground v.1.15,2013-01-03 15:23:00,
2013-01-03 09:24:00,15.6,10.8,30.34,NW,311,14.0,14.0,81,0.00,,,0.00,206,Wunderground v.1.15,2013-01-03 15:24:00,
2013-01-03 09:26:00,15.5,10.7,30.34,NW,311,13.0,14.0,81,0.00,,,0.00,211,Wunderground v.1.15,2013-01-03 15:26:00,
2013-01-03 09:27:00,15.5,10.7,30.34,NW,311,12.0,15.0,81,0.00,,,0.00,213,Wunderground v.1.15,2013-01-03 15:27:00,
2013-01-03 09:29:00,15.5,10.7,30.34,NW,311,11.0,15.0,81,0.00,,,0.00,220,Wunderground v.1.15,2013-01-03 15:29:00,
2013-01-03 09:30:00,15.4,10.6,30.34,NW,306,13.0,13.0,81,0.00,,,0.00,220,Wunderground v.1.15,2013-01-03 15:30:00,
2013-01-03 09:31:00,15.4,10.6,30.35,NW,310,13.0,14.0,81,0.00,,,0.00,223,Wunderground v.1.15,2013-01-03 15:31:00,
2013-01-03 09:32:00,15.4,10.6,30.35,NW,323,12.0,14.0,81,0.00,,,0.00,227,Wunderground v.1.15,2013-01-03 15:32:00,
2013-01-03 09:36:00,15.4,10.6,30.34,NW,316,11.0,14.0,81,0.00,,,0.00,237,Wunderground v.1.15,2013-01-03 15:36:00,
2013-01-03 09:37:00,15.4,10.6,30.34,NW,307,8.0,14.0,81,0.00,,,0.00,237,Wunderground v.1.15,2013-01-03 15:37:00,
2013-01-03 09:38:00,15.5,10.7,30.34,WNW,300,12.0,14.0,81,0.00,,,0.00,241,Wunderground v.1.15,2013-01-03 15:38:00,
2013-01-03 09:39:00,15.5,10.7,30.35,WNW,293,11.0,14.0,81,0.00,,,0.00,243,Wunderground v.1.15,2013-01-03 15:39:00,
2013-01-03 09:42:00,15.5,11.0,30.35,WNW,300,11.0,15.0,82,0.00,,,0.00,251,Wunderground v.1.15,2013-01-03 15:42:00,
2013-01-03 09:44:00,15.4,10.9,30.35,WNW,298,15.0,15.0,82,0.00,,,0.00,255,Wunderground v.1.15,2013-01-03 15:44:00,
2013-01-03 09:45:00,15.4,10.6,30.35,WNW,300,15.0,15.0,81,0.00,,,0.00,260,Wunderground v.1.15,2013-01-03 15:45:00,
2013-01-03 09:47:00,15.3,10.8,30.35,WNW,295,13.0,15.0,82,0.00,,,0.00,264,Wunderground v.1.15,2013-01-03 15:47:00,
2013-01-03 09:49:00,15.3,10.8,30.35,NW,304,15.0,15.0,82,0.00,,,0.00,267,Wunderground v.1.15,2013-01-03 15:49:00,
2013-01-03 09:51:00,15.3,10.8,30.35,WNW,300,13.0,15.0,82,0.00,,,0.00,274,Wunderground v.1.15,2013-01-03 15:51:00,
2013-01-03 09:52:00,15.3,10.8,30.35,WNW,301,14.0,15.0,82,0.00,,,0.00,276,Wunderground v.1.15,2013-01-03 15:52:00,
2013-01-03 09:53:00,15.3,10.8,30.35,WNW,302,12.0,15.0,82,0.00,,,0.00,278,Wunderground v.1.15,2013-01-03 15:53:00,
2013-01-03 09:56:00,15.2,10.4,30.35,WNW,298,15.0,15.0,81,0.00,,,0.00,283,Wunderground v.1.15,2013-01-03 15:56:00,
2013-01-03 09:57:00,15.3,10.5,30.35,WNW,301,13.0,15.0,81,0.00,,,0.00,285,Wunderground v.1.15,2013-01-03 15:57:00,
2013-01-03 09:58:00,15.3,10.8,30.35,WNW,301,17.0,17.0,82,0.00,,,0.00,287,Wunderground v.1.15,2013-01-03 15:58:00,
2013-01-03 09:59:00,15.2,10.4,30.35,NW,304,13.0,17.0,81,0.00,,,0.00,290,Wunderground v.1.15,2013-01-03 15:59:00,
2013-01-03 10:01:00,15.2,10.7,30.35,NW,304,13.0,17.0,82,0.00,,,0.00,295,Wunderground v.1.15,2013-01-03 16:01:00,
2013-01-03 10:02:00,15.3,10.8,30.35,WNW,301,16.0,17.0,82,0.00,,,0.00,295,Wunderground v.1.15,2013-01-03 16:02:00,
2013-01-03 10:05:00,15.2,10.4,30.35,WNW,302,14.0,17.0,81,0.00,,,0.00,302,Wunderground v.1.15,2013-01-03 16:05:00,
2013-01-03 10:07:00,15.2,10.4,30.36,WNW,300,12.0,17.0,81,0.00,,,0.00,306,Wunderground v.1.15,2013-01-03 16:07:00,
2013-01-03 10:08:00,15.2,10.4,30.36,WNW,302,11.0,17.0,81,0.00,,,0.00,308,Wunderground v.1.15,2013-01-03 16:08:00,
2013-01-03 10:10:00,15.2,10.4,30.36,NW,314,13.0,14.0,81,0.00,,,0.00,313,Wunderground v.1.15,2013-01-03 16:10:00,
2013-01-03 10:12:00,15.2,10.4,30.36,WNW,302,13.0,15.0,81,0.00,,,0.00,315,Wunderground v.1.15,2013-01-03 16:12:00,
2013-01-03 10:13:00,15.2,10.4,30.36,NW,306,14.0,15.0,81,0.00,,,0.00,318,Wunderground v.1.15,2013-01-03 16:13:00,
2013-01-03 10:17:00,15.3,10.5,30.36,WNW,298,14.0,15.0,81,0.00,,,0.00,323,Wunderground v.1.15,2013-01-03 16:17:00,
2013-01-03 10:18:00,15.3,10.5,30.36,WNW,298,12.0,15.0,81,0.00,,,0.00,325,Wunderground v.1.15,2013-01-03 16:18:00,
2013-01-03 10:19:00,15.3,10.5,30.36,NW,305,15.0,15.0,81,0.00,,,0.00,329,Wunderground v.1.15,2013-01-03 16:19:00,
2013-01-03 10:20:00,15.2,10.4,30.36,WNW,298,14.0,14.0,81,0.00,,,0.00,330,Wunderground v.1.15,2013-01-03 16:20:00,
2013-01-03 10:22:00,15.2,10.4,30.36,WNW,302,14.0,15.0,81,0.00,,,0.00,334,Wunderground v.1.15,2013-01-03 16:22:00,
2013-01-03 10:24:00,15.1,10.3,30.36,WNW,298,14.0,15.0,81,0.00,,,0.00,339,Wunderground v.1.15,2013-01-03 16:24:00,
2013-01-03 10:25:00,15.1,10.6,30.36,WNW,298,17.0,17.0,82,0.00,,,0.00,341,Wunderground v.1.15,2013-01-03 16:25:00,
2013-01-03 10:27:00,15.0,10.2,30.36,WNW,292,13.0,17.0,81,0.00,,,0.00,345,Wunderground v.1.15,2013-01-03 16:27:00,
2013-01-03 10:28:00,15.0,10.2,30.36,WNW,294,14.0,17.0,81,0.00,,,0.00,345,Wunderground v.1.15,2013-01-03 16:28:00,
2013-01-03 10:29:00,15.0,10.5,30.36,WNW,300,14.0,17.0,82,0.00,,,0.00,348,Wunderground v.1.15,2013-01-03 16:29:00,
2013-01-03 10:31:00,15.0,10.5,30.36,WNW,301,16.0,16.0,82,0.00,,,0.00,353,Wunderground v.1.15,2013-01-03 16:31:00,
2013-01-03 10:34:00,14.9,10.4,30.36,WNW,303,16.0,17.0,82,0.00,,,0.00,355,Wunderground v.1.15,2013-01-03 16:34:00,
2013-01-03 10:35:00,14.9,10.1,30.36,WNW,296,13.0,17.0,81,0.00,,,0.00,357,Wunderground v.1.15,2013-01-03 16:35:00,
2013-01-03 10:38:00,14.9,10.4,30.37,WNW,296,14.0,17.0,82,0.00,,,0.00,362,Wunderground v.1.15,2013-01-03 16:38:00,
2013-01-03 10:39:00,14.9,10.4,30.37,WNW,300,15.0,17.0,82,0.00,,,0.00,362,Wunderground v.1.15,2013-01-03 16:39:00,
2013-01-03 10:40:00,14.9,10.4,30.36,WNW,294,13.0,16.0,82,0.00,,,0.00,367,Wunderground v.1.15,2013-01-03 16:40:00,
2013-01-03 10:42:00,14.9,10.4,30.37,NW,305,14.0,16.0,82,0.00,,,0.00,371,Wunderground v.1.15,2013-01-03 16:42:00,
2013-01-03 10:44:00,14.9,10.4,30.37,WNW,296,14.0,16.0,82,0.00,,,0.00,373,Wunderground v.1.15,2013-01-03 16:44:00,
2013-01-03 10:45:00,14.9,10.4,30.37,NW,310,13.0,16.0,82,0.00,,,0.00,374,Wunderground v.1.15,2013-01-03 16:45:00,
2013-01-03 10:46:00,14.9,10.4,30.37,WNW,296,16.0,16.0,82,0.00,,,0.00,378,Wunderground v.1.15,2013-01-03 16:46:00,
2013-01-03 10:49:00,14.9,10.4,30.37,WNW,300,14.0,16.0,82,0.00,,,0.00,381,Wunderground v.1.15,2013-01-03 16:49:00,
2013-01-03 10:50:00,14.9,10.1,30.37,WNW,301,14.0,14.0,81,0.00,,,0.00,383,Wunderground v.1.15,2013-01-03 16:50:00,
2013-01-03 10:51:00,14.9,10.4,30.37,WNW,298,13.0,16.0,82,0.00,,,0.00,385,Wunderground v.1.15,2013-01-03 16:51:00,
2013-01-03 10:52:00,14.9,10.4,30.37,WNW,296,14.0,17.0,82,0.00,,,0.00,387,Wunderground v.1.15,2013-01-03 16:52:00,
2013-01-03 10:54:00,14.9,10.4,30.37,WNW,292,15.0,17.0,82,0.00,,,0.00,388,Wunderground v.1.15,2013-01-03 16:54:00,
2013-01-03 10:55:00,14.9,10.4,30.37,WNW,298,11.0,17.0,82,0.00,,,0.00,390,Wunderground v.1.15,2013-01-03 16:55:00,
2013-01-03 10:57:00,14.9,10.4,30.37,WNW,295,13.0,17.0,82,0.00,,,0.00,392,Wunderground v.1.15,2013-01-03 16:57:00,
2013-01-03 10:58:00,15.0,10.5,30.37,WNW,298,13.0,17.0,82,0.00,,,0.00,394,Wunderground v.1.15,2013-01-03 16:58:00,
2013-01-03 11:00:00,15.0,10.5,30.37,WNW,292,12.0,14.0,82,0.00,,,0.00,396,Wunderground v.1.15,2013-01-03 17:00:00,
2013-01-03 11:01:00,15.0,10.5,30.37,WNW,300,15.0,15.0,82,0.00,,,0.00,399,Wunderground v.1.15,2013-01-03 17:01:00,
2013-01-03 11:03:00,15.0,10.2,30.37,WNW,296,12.0,16.0,81,0.00,,,0.00,401,Wunderground v.1.15,2013-01-03 17:03:00,
2013-01-03 11:06:00,15.0,10.5,30.37,WNW,295,14.0,16.0,82,0.00,,,0.00,404,Wunderground v.1.15,2013-01-03 17:06:00,
2013-01-03 11:08:00,15.0,10.2,30.37,WNW,295,13.0,16.0,81,0.00,,,0.00,408,Wunderground v.1.15,2013-01-03 17:08:00,
2013-01-03 11:09:00,15.0,10.2,30.37,WNW,295,14.0,16.0,81,0.00,,,0.00,408,Wunderground v.1.15,2013-01-03 17:09:00,
2013-01-03 11:12:00,15.1,10.3,30.37,WNW,298,15.0,15.0,81,0.00,,,0.00,413,Wunderground v.1.15,2013-01-03 17:12:00,
2013-01-03 11:14:00,15.1,10.3,30.37,NW,304,15.0,15.0,81,0.00,,,0.00,415,Wunderground v.1.15,2013-01-03 17:14:00,
2013-01-03 11:15:00,15.2,10.4,30.37,NW,306,15.0,15.0,81,0.00,,,0.00,417,Wunderground v.1.15,2013-01-03 17:15:00,
2013-01-03 11:17:00,15.2,10.4,30.37,WNW,302,13.0,16.0,81,0.00,,,0.00,420,Wunderground v.1.15,2013-01-03 17:17:00,
2013-01-03 11:19:00,15.2,10.4,30.37,NW,311,12.0,16.0,81,0.00,,,0.00,420,Wunderground v.1.15,2013-01-03 17:19:00,
2013-01-03 11:21:00,15.2,10.4,30.37,WNW,288,13.0,13.0,81,0.00,,,0.00,420,Wunderground v.1.15,2013-01-03 17:21:00,
2013-01-03 11:22:00,15.2,10.4,30.37,WNW,294,15.0,15.0,81,0.00,,,0.00,420,Wunderground v.1.15,2013-01-03 17:22:00,
2013-01-03 11:25:00,15.2,10.4,30.37,WNW,299,14.0,16.0,81,0.00,,,0.00,427,Wunderground v.1.15,2013-01-03 17:25:00,
2013-01-03 11:26:00,15.2,10.4,30.37,NW,304,13.0,16.0,81,0.00,,,0.00,427,Wunderground v.1.15,2013-01-03 17:26:00,
2013-01-03 11:27:00,15.2,10.4,30.37,WNW,298,12.0,16.0,81,0.00,,,0.00,429,Wunderground v.1.15,2013-01-03 17:27:00,
2013-01-03 11:28:00,15.2,10.4,30.37,WNW,290,14.0,16.0,81,0.00,,,0.00,429,Wunderground v.1.15,2013-01-03 17:28:00,
2013-01-03 11:31:00,15.2,10.4,30.37,WNW,290,13.0,16.0,81,0.00,,,0.00,431,Wunderground v.1.15,2013-01-03 17:31:00,
2013-01-03 11:33:00,15.2,10.4,30.37,WNW,293,14.0,16.0,81,0.00,,,0.00,432,Wunderground v.1.15,2013-01-03 17:33:00,
2013-01-03 11:36:00,15.1,10.3,30.37,WNW,302,12.0,18.0,81,0.00,,,0.00,436,Wunderground v.1.15,2013-01-03 17:36:00,
2013-01-03 11:38:00,15.2,10.4,30.37,WNW,298,16.0,18.0,81,0.00,,,0.00,438,Wunderground v.1.15,2013-01-03 17:38:00,
2013-01-03 11:39:00,15.1,10.3,30.37,WNW,301,12.0,18.0,81,0.00,,,0.00,439,Wunderground v.1.15,2013-01-03 17:39:00,
2013-01-03 11:42:00,15.2,10.4,30.37,WNW,300,17.0,20.0,81,0.00,,,0.00,441,Wunderground v.1.15,2013-01-03 17:42:00,
2013-01-03 11:43:00,15.2,10.4,30.36,WNW,296,16.0,20.0,81,0.00,,,0.00,443,Wunderground v.1.15,2013-01-03 17:43:00,
2013-01-03 11:44:00,15.2,10.4,30.36,WNW,295,17.0,20.0,81,0.00,,,0.00,445,Wunderground v.1.15,2013-01-03 17:44:00,
2013-01-03 11:45:00,15.2,10.4,30.36,WNW,298,15.0,20.0,81,0.00,,,0.00,445,Wunderground v.1.15,2013-01-03 17:45:00,
2013-01-03 11:48:00,15.3,10.5,30.36,WNW,292,16.0,20.0,81,0.00,,,0.00,446,Wunderground v.1.15,2013-01-03 17:48:00,
2013-01-03 11:50:00,15.3,10.5,30.36,WNW,292,16.0,16.0,81,0.00,,,0.00,448,Wunderground v.1.15,2013-01-03 17:50:00,
2013-01-03 11:51:00,15.3,10.5,30.36,WNW,294,15.0,18.0,81,0.00,,,0.00,450,Wunderground v.1.15,2013-01-03 17:51:00,
2013-01-03 11:53:00,15.4,10.6,30.36,WNW,294,17.0,18.0,81,0.00,,,0.00,448,Wunderground v.1.15,2013-01-03 17:53:00,
2013-01-03 11:56:00,15.4,10.3,30.36,WNW,298,16.0,20.0,80,0.00,,,0.00,452,Wunderground v.1.15,2013-01-03 17:56:00,
2013-01-03 11:58:00,15.4,10.3,30.36,WNW,300,16.0,20.0,80,0.00,,,0.00,452,Wunderground v.1.15,2013-01-03 17:58:00,
2013-01-03 11:59:00,15.4,10.3,30.36,WNW,303,16.0,20.0,80,0.00,,,0.00,452,Wunderground v.1.15,2013-01-03 17:59:00,
2013-01-03 12:01:00,15.5,10.4,30.36,WNW,295,15.0,16.0,80,0.00,,,0.00,454,Wunderground v.1.15,2013-01-03 18:01:00,
2013-01-03 12:03:00,15.5,10.7,30.36,NW,304,16.0,16.0,81,0.00,,,0.00,454,Wunderground v.1.15,2013-01-03 18:03:00,
2013-01-03 12:04:00,15.5,10.4,30.36,WNW,302,16.0,16.0,80,0.00,,,0.00,454,Wunderground v.1.15,2013-01-03 18:04:00,
2013-01-03 12:07:00,15.6,10.5,30.35,WNW,300,13.0,17.0,80,0.00,,,0.00,455,Wunderground v.1.15,2013-01-03 18:07:00,
2013-01-03 12:09:00,15.7,10.9,30.36,WNW,295,15.0,18.0,81,0.00,,,0.00,455,Wunderground v.1.15,2013-01-03 18:09:00,
2013-01-03 12:10:00,15.7,10.9,30.36,WNW,301,15.0,15.0,81,0.00,,,0.00,457,Wunderground v.1.15,2013-01-03 18:10:00,
2013-01-03 12:11:00,15.7,10.6,30.36,WNW,299,14.0,17.0,80,0.00,,,0.00,455,Wunderground v.1.15,2013-01-03 18:11:00,
2013-01-03 12:12:00,15.7,10.9,30.36,WNW,301,16.0,17.0,81,0.00,,,0.00,457,Wunderground v.1.15,2013-01-03 18:12:00,
2013-01-03 12:16:00,15.8,11.0,30.35,WNW,302,13.0,17.0,81,0.00,,,0.00,457,Wunderground v.1.15,2013-01-03 18:16:00,
2013-01-03 12:18:00,15.8,11.0,30.35,NW,305,11.0,17.0,81,0.00,,,0.00,457,Wunderground v.1.15,2013-01-03 18:18:00,
2013-01-03 12:22:00,15.9,10.8,30.35,WNW,295,14.0,16.0,80,0.00,,,0.00,459,Wunderground v.1.15,2013-01-03 18:22:00,
2013-01-03 12:24:00,15.9,10.8,30.35,WNW,288,13.0,16.0,80,0.00,,,0.00,461,Wunderground v.1.15,2013-01-03 18:24:00,
2013-01-03 12:27:00,15.9,10.8,30.35,WNW,300,14.0,16.0,80,0.00,,,0.00,461,Wunderground v.1.15,2013-01-03 18:27:00,
2013-01-03 12:29:00,15.9,11.1,30.35,WNW,295,14.0,16.0,81,0.00,,,0.00,459,Wunderground v.1.15,2013-01-03 18:29:00,
2013-01-03 12:31:00,15.9,11.1,30.35,WNW,298,12.0,15.0,81,0.00,,,0.00,459,Wunderground v.1.15,2013-01-03 18:31:00,
2013-01-03 12:33:00,15.9,10.8,30.35,WNW,292,15.0,15.0,80,0.00,,,0.00,459,Wunderground v.1.15,2013-01-03 18:33:00,
2013-01-03 12:34:00,15.9,10.8,30.35,WNW,295,12.0,16.0,80,0.00,,,0.00,459,Wunderground v.1.15,2013-01-03 18:34:00,
2013-01-03 12:35:00,15.9,11.1,30.35,WNW,296,14.0,16.0,81,0.00,,,0.00,459,Wunderground v.1.15,2013-01-03 18:35:00,
2013-01-03 12:37:00,16.0,11.2,30.35,WNW,286,16.0,16.0,81,0.00,,,0.00,459,Wunderground v.1.15,2013-01-03 18:37:00,
2013-01-03 12:40:00,16.0,10.9,30.35,WNW,288,13.0,14.0,80,0.00,,,0.00,459,Wunderground v.1.15,2013-01-03 18:40:00,
2013-01-03 12:41:00,16.0,10.9,30.34,WNW,291,13.0,15.0,80,0.00,,,0.00,459,Wunderground v.1.15,2013-01-03 18:41:00,
2013-01-03 12:44:00,16.1,11.0,30.34,WNW,299,12.0,15.0,80,0.00,,,0.00,457,Wunderground v.1.15,2013-01-03 18:44:00,
2013-01-03 12:45:00,16.1,11.0,30.34,NW,306,13.0,15.0,80,0.00,,,0.00,455,Wunderground v.1.15,2013-01-03 18:45:00,
2013-01-03 12:46:00,16.1,11.0,30.34,WNW,298,11.0,15.0,80,0.00,,,0.00,455,Wunderground v.1.15,2013-01-03 18:46:00,
2013-01-03 12:50:00,16.2,11.1,30.34,WNW,292,15.0,15.0,80,0.00,,,0.00,457,Wunderground v.1.15,2013-01-03 18:50:00,
2013-01-03 12:51:00,16.2,11.1,30.34,WNW,292,15.0,15.0,80,0.00,,,0.00,457,Wunderground v.1.15,2013-01-03 18:51:00,
2013-01-03 12:52:00,16.2,11.1,30.34,WNW,286,14.0,16.0,80,0.00,,,0.00,457,Wunderground v.1.15,2013-01-03 18:52:00,
2013-01-03 12:56:00,16.3,11.2,30.34,WNW,302,14.0,17.0,80,0.00,,,0.00,454,Wunderground v.1.15,2013-01-03 18:56:00,
2013-01-03 12:57:00,16.3,11.5,30.34,WNW,294,16.0,17.0,81,0.00,,,0.00,454,Wunderground v.1.15,2013-01-03 18:57:00,
2013-01-03 12:58:00,16.2,11.4,30.34,WNW,290,14.0,17.0,81,0.00,,,0.00,454,Wunderground v.1.15,2013-01-03 18:58:00,
2013-01-03 13:00:00,16.3,11.2,30.34,WNW,290,13.0,14.0,80,0.00,,,0.00,452,Wunderground v.1.15,2013-01-03 19:00:00,
2013-01-03 13:01:00,16.3,11.2,30.34,WNW,294,13.0,15.0,80,0.00,,,0.00,450,Wunderground v.1.15,2013-01-03 19:01:00,
2013-01-03 13:03:00,16.3,11.2,30.34,WNW,290,14.0,15.0,80,0.00,,,0.00,450,Wunderground v.1.15,2013-01-03 19:03:00,
2013-01-03 13:06:00,16.3,11.2,30.34,WNW,296,14.0,15.0,80,0.00,,,0.00,448,Wunderground v.1.15,2013-01-03 19:06:00,
2013-01-03 13:07:00,16.3,11.2,30.34,WNW,293,16.0,16.0,80,0.00,,,0.00,446,Wunderground v.1.15,2013-01-03 19:07:00,
2013-01-03 13:08:00,16.3,11.5,30.34,WNW,294,14.0,16.0,81,0.00,,,0.00,446,Wunderground v.1.15,2013-01-03 19:08:00,
2013-01-03 13:09:00,16.3,11.2,30.35,WNW,302,16.0,16.0,80,0.00,,,0.00,446,Wunderground v.1.15,2013-01-03 19:09:00,
2013-01-03 13:12:00,16.4,11.6,30.34,WNW,292,14.0,16.0,81,0.00,,,0.00,445,Wunderground v.1.15,2013-01-03 19:12:00,
2013-01-03 13:13:00,16.4,11.6,30.34,WNW,292,12.0,16.0,81,0.00,,,0.00,443,Wunderground v.1.15,2013-01-03 19:13:00,
2013-01-03 13:17:00,16.6,11.8,30.34,WNW,295,15.0,17.0,81,0.00,,,0.00,441,Wunderground v.1.15,2013-01-03 19:17:00,
2013-01-03 13:18:00,16.5,11.7,30.34,WNW,296,15.0,17.0,81,0.00,,,0.00,439,Wunderground v.1.15,2013-01-03 19:18:00,
2013-01-03 13:19:00,16.5,11.7,30.34,WNW,294,13.0,17.0,81,0.00,,,0.00,439,Wunderground v.1.15,2013-01-03 19:19:00,
2013-01-03 13:50:00,16.7,11.9,30.34,WNW,300,13.0,13.0,81,0.00,,,0.00,408,Wunderground v.1.15,2013-01-03 19:50:00,
2013-01-03 13:51:00,16.7,11.9,30.34,WNW,302,15.0,15.0,81,0.00,,,0.00,404,Wunderground v.1.15,2013-01-03 19:51:00,
2013-01-03 13:53:00,16.8,11.7,30.34,WNW,297,11.0,15.0,80,0.00,,,0.00,404,Wunderground v.1.15,2013-01-03 19:53:00,
2013-01-03 13:57:00,16.8,11.7,30.34,WNW,291,11.0,15.0,80,0.00,,,0.00,397,Wunderground v.1.15,2013-01-03 19:57:00,
2013-01-03 13:58:00,16.8,11.7,30.34,WNW,299,13.0,15.0,80,0.00,,,0.00,396,Wunderground v.1.15,2013-01-03 19:58:00,
2013-01-03 14:01:00,16.8,12.0,30.34,WNW,290,13.0,14.0,81,0.00,,,0.00,392,Wunderground v.1.15,2013-01-03 20:01:00,
2013-01-03 14:03:00,16.8,11.7,30.34,WNW,290,13.0,14.0,80,0.00,,,0.00,392,Wunderground v.1.15,2013-01-03 20:03:00,
2013-01-03 14:06:00,16.9,12.1,30.34,NW,308,11.0,14.0,81,0.00,,,0.00,383,Wunderground v.1.15,2013-01-03 20:06:00,
2013-01-03 14:09:00,17.0,12.2,30.34,WNW,295,11.0,14.0,81,0.00,,,0.00,383,Wunderground v.1.15,2013-01-03 20:09:00,
2013-01-03 14:10:00,17.0,12.2,30.34,WNW,292,11.0,12.0,81,0.00,,,0.00,376,Wunderground v.1.15,2013-01-03 20:10:00,
2013-01-03 14:11:00,17.0,12.2,30.34,WNW,287,13.0,13.0,81,0.00,,,0.00,374,Wunderground v.1.15,2013-01-03 20:11:00,
2013-01-03 14:12:00,17.0,12.2,30.34,WNW,288,10.0,13.0,81,0.00,,,0.00,374,Wunderground v.1.15,2013-01-03 20:12:00,
2013-01-03 14:14:00,17.0,12.5,30.34,WNW,298,11.0,13.0,82,0.00,,,0.00,374,Wunderground v.1.15,2013-01-03 20:14:00,
2013-01-03 14:16:00,17.0,12.2,30.34,WNW,294,11.0,13.0,81,0.00,,,0.00,373,Wunderground v.1.15,2013-01-03 20:16:00,
2013-01-03 14:18:00,17.0,12.2,30.34,WNW,300,13.0,13.0,81,0.00,,,0.00,362,Wunderground v.1.15,2013-01-03 20:18:00,
2013-01-03 14:19:00,17.0,12.2,30.34,WNW,302,11.0,13.0,81,0.00,,,0.00,362,Wunderground v.1.15,2013-01-03 20:19:00,
2013-01-03 14:22:00,17.1,12.3,30.34,WNW,293,12.0,13.0,81,0.00,,,0.00,357,Wunderground v.1.15,2013-01-03 20:22:00,
2013-01-03 14:23:00,17.0,12.2,30.34,WNW,292,13.0,14.0,81,0.00,,,0.00,355,Wunderground v.1.15,2013-01-03 20:23:00,
2013-01-03 14:24:00,17.1,12.3,30.34,WNW,298,11.0,14.0,81,0.00,,,0.00,353,Wunderground v.1.15,2013-01-03 20:24:00,
2013-01-03 14:25:00,17.1,12.3,30.34,WNW,298,13.0,14.0,81,0.00,,,0.00,352,Wunderground v.1.15,2013-01-03 20:25:00,
2013-01-03 14:27:00,17.1,12.3,30.34,WNW,294,10.0,14.0,81,0.00,,,0.00,346,Wunderground v.1.15,2013-01-03 20:27:00,
2013-01-03 14:28:00,17.1,12.3,30.34,WNW,293,11.0,14.0,81,0.00,,,0.00,345,Wunderground v.1.15,2013-01-03 20:28:00,
2013-01-03 14:30:00,17.1,12.3,30.34,WNW,291,10.0,12.0,81,0.00,,,0.00,343,Wunderground v.1.15,2013-01-03 20:30:00,
2013-01-03 14:33:00,17.1,12.3,30.34,WNW,292,12.0,12.0,81,0.00,,,0.00,338,Wunderground v.1.15,2013-01-03 20:33:00,
2013-01-03 14:36:00,17.2,12.4,30.34,WNW,291,11.0,12.0,81,0.00,,,0.00,330,Wunderground v.1.15,2013-01-03 20:36:00,
2013-01-03 14:40:00,17.2,12.4,30.35,WNW,288,9.0,11.0,81,0.00,,,0.00,323,Wunderground v.1.15,2013-01-03 20:40:00,
2013-01-03 14:41:00,17.2,12.4,30.35,WNW,294,10.0,11.0,81,0.00,,,0.00,320,Wunderground v.1.15,2013-01-03 20:41:00,
2013-01-03 14:43:00,17.1,12.3,30.35,WNW,295,11.0,12.0,81,0.00,,,0.00,316,Wunderground v.1.15,2013-01-03 20:43:00,
2013-01-03 14:45:00,17.2,12.4,30.35,WNW,293,9.0,12.0,81,0.00,,,0.00,311,Wunderground v.1.15,2013-01-03 20:45:00,
2013-01-03 14:47:00,17.2,12.4,30.35,WNW,290,9.0,12.0,81,0.00,,,0.00,308,Wunderground v.1.15,2013-01-03 20:47:00,
2013-01-03 14:48:00,17.2,12.6,30.35,WNW,292,10.0,12.0,82,0.00,,,0.00,306,Wunderground v.1.15,2013-01-03 20:48:00,
2013-01-03 14:49:00,17.1,12.6,30.35,WNW,284,10.0,13.0,82,0.00,,,0.00,304,Wunderground v.1.15,2013-01-03 20:49:00,
2013-01-03 14:52:00,17.1,12.6,30.35,WNW,285,10.0,12.0,82,0.00,,,0.00,299,Wunderground v.1.15,2013-01-03 20:52:00,
2013-01-03 14:53:00,17.2,12.4,30.35,West,281,11.0,13.0,81,0.00,,,0.00,297,Wunderground v.1.15,2013-01-03 20:53:00,
2013-01-03 14:55:00,17.1,12.3,30.35,WNW,286,9.0,13.0,81,0.00,,,0.00,292,Wunderground v.1.15,2013-01-03 20:55:00,
2013-01-03 14:58:00,17.1,12.3,30.35,WNW,294,10.0,13.0,81,0.00,,,0.00,288,Wunderground v.1.15,2013-01-03 20:58:00,
2013-01-03 14:59:00,17.1,12.6,30.35,WNW,284,11.0,13.0,82,0.00,,,0.00,283,Wunderground v.1.15,2013-01-03 20:59:00,
2013-01-03 15:03:00,17.1,12.6,30.35,WNW,287,7.0,12.0,82,0.00,,,0.00,274,Wunderground v.1.15,2013-01-03 21:03:00,
2013-01-03 15:05:00,17.1,12.6,30.35,WNW,292,10.0,13.0,82,0.00,,,0.00,265,Wunderground v.1.15,2013-01-03 21:05:00,
2013-01-03 15:06:00,17.0,12.5,30.35,WNW,295,10.0,13.0,82,0.00,,,0.00,264,Wunderground v.1.15,2013-01-03 21:06:00,
2013-01-03 15:09:00,17.1,12.3,30.36,WNW,294,10.0,13.0,81,0.00,,,0.00,253,Wunderground v.1.15,2013-01-03 21:09:00,
2013-01-03 15:10:00,17.1,12.6,30.35,WNW,290,11.0,11.0,82,0.00,,,0.00,251,Wunderground v.1.15,2013-01-03 21:10:00,
2013-01-03 15:11:00,17.0,12.5,30.35,WNW,290,9.0,12.0,82,0.00,,,0.00,250,Wunderground v.1.15,2013-01-03 21:11:00,
2013-01-03 15:12:00,17.1,12.6,30.36,WNW,292,9.0,12.0,82,0.00,,,0.00,246,Wunderground v.1.15,2013-01-03 21:12:00,
2013-01-03 15:14:00,17.0,12.5,30.36,WNW,290,10.0,12.0,82,0.00,,,0.00,239,Wunderground v.1.15,2013-01-03 21:14:00,
2013-01-03 15:16:00,17.0,12.5,30.36,WNW,292,10.0,12.0,82,0.00,,,0.00,234,Wunderground v.1.15,2013-01-03 21:16:00,
2013-01-03 15:19:00,16.9,12.4,30.36,WNW,298,9.0,12.0,82,0.00,,,0.00,225,Wunderground v.1.15,2013-01-03 21:19:00,
2013-01-03 15:21:00,16.8,12.5,30.36,WNW,298,8.0,10.0,83,0.00,,,0.00,218,Wunderground v.1.15,2013-01-03 21:21:00,
2013-01-03 15:23:00,16.8,12.5,30.36,WNW,300,9.0,10.0,83,0.00,,,0.00,213,Wunderground v.1.15,2013-01-03 21:23:00,
2013-01-03 15:24:00,16.8,12.3,30.36,WNW,303,7.0,10.0,82,0.00,,,0.00,209,Wunderground v.1.15,2013-01-03 21:24:00,
2013-01-03 15:25:00,16.8,12.5,30.36,WNW,298,9.0,11.0,83,0.00,,,0.00,204,Wunderground v.1.15,2013-01-03 21:25:00,
2013-01-03 15:28:00,16.7,12.2,30.36,NW,304,8.0,11.0,82,0.00,,,0.00,197,Wunderground v.1.15,2013-01-03 21:28:00,
2013-01-03 15:29:00,16.7,12.2,30.36,WNW,301,9.0,11.0,82,0.00,,,0.00,195,Wunderground v.1.15,2013-01-03 21:29:00,
2013-01-03 15:30:00,16.7,12.4,30.36,WNW,301,7.0,9.0,83,0.00,,,0.00,190,Wunderground v.1.15,2013-01-03 21:30:00,
2013-01-03 15:33:00,16.6,12.3,30.36,WNW,300,8.0,9.0,83,0.00,,,0.00,181,Wunderground v.1.15,2013-01-03 21:33:00,
2013-01-03 15:34:00,16.6,12.3,30.36,WNW,298,8.0,9.0,83,0.00,,,0.00,178,Wunderground v.1.15,2013-01-03 21:34:00,
2013-01-03 15:35:00,16.6,12.3,30.36,WNW,298,8.0,9.0,83,0.00,,,0.00,174,Wunderground v.1.15,2013-01-03 21:35:00,
2013-01-03 15:37:00,16.6,12.3,30.36,WNW,294,8.0,9.0,83,0.00,,,0.00,167,Wunderground v.1.15,2013-01-03 21:37:00,
2013-01-03 15:39:00,16.6,12.3,30.36,WNW,291,8.0,9.0,83,0.00,,,0.00,162,Wunderground v.1.15,2013-01-03 21:39:00,
2013-01-03 15:40:00,16.5,12.2,30.36,WNW,292,7.0,8.0,83,0.00,,,0.00,160,Wunderground v.1.15,2013-01-03 21:40:00,
2013-01-03 15:42:00,16.4,12.1,30.36,WNW,292,8.0,8.0,83,0.00,,,0.00,155,Wunderground v.1.15,2013-01-03 21:42:00,
2013-01-03 15:44:00,16.4,12.1,30.36,WNW,295,7.0,8.0,83,0.00,,,0.00,155,Wunderground v.1.15,2013-01-03 21:44:00,
2013-01-03 15:45:00,16.3,12.0,30.36,WNW,300,8.0,8.0,83,0.00,,,0.00,144,Wunderground v.1.15,2013-01-03 21:45:00,
2013-01-03 15:46:00,16.3,12.0,30.36,WNW,297,7.0,8.0,83,0.00,,,0.00,142,Wunderground v.1.15,2013-01-03 21:46:00,
2013-01-03 15:47:00,16.3,12.0,30.36,WNW,301,7.0,8.0,83,0.00,,,0.00,139,Wunderground v.1.15,2013-01-03 21:47:00,
2013-01-03 15:50:00,16.2,11.9,30.36,WNW,296,6.0,7.0,83,0.00,,,0.00,130,Wunderground v.1.15,2013-01-03 21:50:00,
2013-01-03 15:51:00,16.1,11.8,30.36,WNW,303,7.0,9.0,83,0.00,,,0.00,127,Wunderground v.1.15,2013-01-03 21:51:00,
2013-01-03 15:52:00,16.1,11.8,30.36,WNW,300,9.0,9.0,83,0.00,,,0.00,121,Wunderground v.1.15,2013-01-03 21:52:00,
2013-01-03 15:54:00,16.1,11.8,30.36,NW,304,8.0,9.0,83,0.00,,,0.00,116,Wunderground v.1.15,2013-01-03 21:54:00,
2013-01-03 15:56:00,16.0,11.5,30.36,NW,304,9.0,9.0,82,0.00,,,0.00,113,Wunderground v.1.15,2013-01-03 21:56:00,
2013-01-03 15:57:00,15.9,11.4,30.36,WNW,302,9.0,10.0,82,0.00,,,0.00,109,Wunderground v.1.15,2013-01-03 21:57:00,
2013-01-03 15:59:00,15.9,11.4,30.36,WNW,299,7.0,10.0,82,0.00,,,0.00,104,Wunderground v.1.15,2013-01-03 21:59:00,
2013-01-03 16:01:00,15.9,11.4,30.37,NW,305,9.0,10.0,82,0.00,,,0.00,97,Wunderground v.1.15,2013-01-03 22:01:00,
2013-01-03 16:02:00,15.8,11.3,30.36,WNW,302,8.0,10.0,82,0.00,,,0.00,91,Wunderground v.1.15,2013-01-03 22:02:00,
2013-01-03 16:03:00,15.8,11.3,30.36,NW,309,7.0,10.0,82,0.00,,,0.00,90,Wunderground v.1.15,2013-01-03 22:03:00,
2013-01-03 16:07:00,15.6,11.4,30.37,NW,304,9.0,10.0,83,0.00,,,0.00,77,Wunderground v.1.15,2013-01-03 22:07:00,
2013-01-03 16:08:00,15.5,11.3,30.37,WNW,302,8.0,10.0,83,0.00,,,0.00,76,Wunderground v.1.15,2013-01-03 22:08:00,
2013-01-03 16:13:00,15.5,11.3,30.37,NW,306,7.0,8.0,83,0.00,,,0.00,65,Wunderground v.1.15,2013-01-03 22:13:00,
2013-01-03 16:14:00,15.5,11.3,30.37,NW,305,7.0,8.0,83,0.00,,,0.00,63,Wunderground v.1.15,2013-01-03 22:14:00,
2013-01-03 16:15:00,15.4,11.2,30.37,WNW,302,7.0,8.0,83,0.00,,,0.00,60,Wunderground v.1.15,2013-01-03 22:15:00,
2013-01-03 16:18:00,15.3,11.1,30.37,WNW,302,7.0,8.0,83,0.00,,,0.00,56,Wunderground v.1.15,2013-01-03 22:18:00,
2013-01-03 16:19:00,15.2,10.7,30.37,WNW,302,6.0,8.0,82,0.00,,,0.00,53,Wunderground v.1.15,2013-01-03 22:19:00,
2013-01-03 16:21:00,15.0,10.8,30.37,WNW,302,7.0,7.0,83,0.00,,,0.00,49,Wunderground v.1.15,2013-01-03 22:21:00,
2013-01-03 16:24:00,14.6,10.4,30.37,NW,304,5.0,7.0,83,0.00,,,0.00,42,Wunderground v.1.15,2013-01-03 22:24:00,
2013-01-03 16:26:00,14.5,10.3,30.37,WNW,301,4.0,7.0,83,0.00,,,0.00,39,Wunderground v.1.15,2013-01-03 22:26:00,
2013-01-03 16:27:00,14.4,10.2,30.37,WNW,301,6.0,7.0,83,0.00,,,0.00,39,Wunderground v.1.15,2013-01-03 22:27:00,
2013-01-03 16:30:00,14.0,9.8,30.37,NW,306,5.0,5.0,83,0.00,,,0.00,30,Wunderground v.1.15,2013-01-03 22:30:00,
2013-01-03 16:31:00,14.0,10.1,30.37,NW,306,5.0,5.0,84,0.00,,,0.00,28,Wunderground v.1.15,2013-01-03 22:31:00,
2013-01-03 16:32:00,13.9,10.0,30.37,NW,306,5.0,5.0,84,0.00,,,0.00,28,Wunderground v.1.15,2013-01-03 22:32:00,
2013-01-03 16:35:00,13.5,9.6,30.37,NW,309,5.0,6.0,84,0.00,,,0.00,21,Wunderground v.1.15,2013-01-03 22:35:00,
2013-01-03 16:36:00,13.5,9.6,30.37,NW,309,5.0,6.0,84,0.00,,,0.00,21,Wunderground v.1.15,2013-01-03 22:36:00,
2013-01-03 16:38:00,13.4,9.5,30.37,NW,305,5.0,6.0,84,0.00,,,0.00,19,Wunderground v.1.15,2013-01-03 22:38:00,
2013-01-03 16:42:00,13.1,9.2,30.37,NW,304,5.0,5.0,84,0.00,,,0.00,16,Wunderground v.1.15,2013-01-03 22:42:00,
2013-01-03 16:43:00,13.0,9.1,30.38,WNW,303,5.0,5.0,84,0.00,,,0.00,16,Wunderground v.1.15,2013-01-03 22:43:00,
2013-01-03 16:44:00,12.9,9.0,30.38,NW,304,5.0,5.0,84,0.00,,,0.00,14,Wunderground v.1.15,2013-01-03 22:44:00,
2013-01-03 16:47:00,12.7,9.0,30.38,WNW,301,4.0,5.0,85,0.00,,,0.00,12,Wunderground v.1.15,2013-01-03 22:47:00,
2013-01-03 16:48:00,12.6,8.7,30.38,WNW,301,4.0,5.0,84,0.00,,,0.00,12,Wunderground v.1.15,2013-01-03 22:48:00,
2013-01-03 16:50:00,12.4,8.5,30.38,WNW,301,3.0,4.0,84,0.00,,,0.00,11,Wunderground v.1.15,2013-01-03 22:50:00,
2013-01-03 16:51:00,12.2,8.3,30.38,WNW,301,3.0,4.0,84,0.00,,,0.00,11,Wunderground v.1.15,2013-01-03 22:51:00,
2013-01-03 16:53:00,11.7,7.8,30.38,WNW,301,3.0,4.0,84,0.00,,,0.00,9,Wunderground v.1.15,2013-01-03 22:53:00,
2013-01-03 16:54:00,11.6,7.7,30.38,WNW,301,2.0,4.0,84,0.00,,,0.00,9,Wunderground v.1.15,2013-01-03 22:54:00,
2013-01-03 16:55:00,11.5,7.6,30.38,WNW,301,2.0,4.0,84,0.00,,,0.00,7,Wunderground v.1.15,2013-01-03 22:55:00,
2013-01-03 16:56:00,11.4,7.5,30.38,WNW,301,2.0,4.0,84,0.00,,,0.00,7,Wunderground v.1.15,2013-01-03 22:56:00,
2013-01-03 16:59:00,11.2,7.6,30.37,WNW,302,3.0,4.0,85,0.00,,,0.00,5,Wunderground v.1.15,2013-01-03 22:59:00,
2013-01-03 17:00:00,11.1,7.5,30.38,WNW,302,3.0,3.0,85,0.00,,,0.00,5,Wunderground v.1.15,2013-01-03 23:00:00,
2013-01-03 17:05:00,10.9,7.3,30.37,WNW,302,2.0,3.0,85,0.00,,,0.00,0,Wunderground v.1.15,2013-01-03 23:05:00,
2013-01-03 17:06:00,10.9,7.5,30.37,WNW,302,2.0,3.0,86,0.00,,,0.00,0,Wunderground v.1.15,2013-01-03 23:06:00,
2013-01-03 17:11:00,10.5,6.9,30.38,WNW,302,3.0,3.0,85,0.00,,,0.00,0,Wunderground v.1.15,2013-01-03 23:11:00,
2013-01-03 17:12:00,10.5,6.9,30.38,WNW,302,3.0,3.0,85,0.00,,,0.00,0,Wunderground v.1.15,2013-01-03 23:12:00,
2013-01-03 17:13:00,10.4,6.8,30.38,WNW,302,2.0,3.0,85,0.00,,,0.00,0,Wunderground v.1.15,2013-01-03 23:13:00,
2013-01-03 17:17:00,9.7,6.1,30.38,WNW,302,3.0,3.0,85,0.00,,,0.00,0,Wunderground v.1.15,2013-01-03 23:17:00,
2013-01-03 17:18:00,9.5,5.9,30.38,WNW,302,3.0,3.0,85,0.00,,,0.00,0,Wunderground v.1.15,2013-01-03 23:18:00,
2013-01-03 17:19:00,9.5,5.9,30.38,WNW,302,2.0,3.0,85,0.00,,,0.00,0,Wunderground v.1.15,2013-01-03 23:19:00,
2013-01-03 17:23:00,9.6,6.5,30.38,WNW,298,2.0,3.0,87,0.00,,,0.00,0,Wunderground v.1.15,2013-01-03 23:23:00,
2013-01-03 17:25:00,9.7,6.6,30.38,WNW,298,3.0,3.0,87,0.00,,,0.00,0,Wunderground v.1.15,2013-01-03 23:25:00,
2013-01-03 17:26:00,9.8,6.7,30.38,WNW,298,3.0,3.0,87,0.00,,,0.00,0,Wunderground v.1.15,2013-01-03 23:26:00,
2013-01-03 17:28:00,9.8,6.7,30.38,WNW,298,2.0,3.0,87,0.00,,,0.00,0,Wunderground v.1.15,2013-01-03 23:28:00,
2013-01-03 17:29:00,9.7,6.4,30.38,WNW,298,1.0,3.0,86,0.00,,,0.00,0,Wunderground v.1.15,2013-01-03 23:29:00,
2013-01-03 17:32:00,9.4,6.1,30.38,WNW,298,2.0,2.0,86,0.00,,,0.00,0,Wunderground v.1.15,2013-01-03 23:32:00,
2013-01-03 17:36:00,9.1,5.8,30.38,WNW,298,2.0,2.0,86,0.00,,,0.00,0,Wunderground v.1.15,2013-01-03 23:36:00,
2013-01-03 17:37:00,9.0,5.7,30.38,WNW,298,1.0,2.0,86,0.00,,,0.00,0,Wunderground v.1.15,2013-01-03 23:37:00,
2013-01-03 17:38:00,8.8,5.5,30.38,WNW,298,2.0,2.0,86,0.00,,,0.00,0,Wunderground v.1.15,2013-01-03 23:38:00,
2013-01-03 17:42:00,8.1,4.5,30.38,WNW,298,3.0,3.0,85,0.00,,,0.00,0,Wunderground v.1.15,2013-01-03 23:42:00,
2013-01-03 17:43:00,8.0,4.4,30.38,WNW,298,2.0,3.0,85,0.00,,,0.00,0,Wunderground v.1.15,2013-01-03 23:43:00,
2013-01-03 17:44:00,7.9,4.6,30.38,WNW,298,4.0,4.0,86,0.00,,,0.00,0,Wunderground v.1.15,2013-01-03 23:44:00,
2013-01-03 17:47:00,7.9,4.6,30.38,WNW,298,4.0,4.0,86,0.00,,,0.00,0,Wunderground v.1.15,2013-01-03 23:47:00,
2013-01-03 17:49:00,7.9,4.6,30.38,WNW,298,4.0,4.0,86,0.00,,,0.00,0,Wunderground v.1.15,2013-01-03 23:49:00,
2013-01-03 17:50:00,8.0,4.9,30.38,WNW,298,4.0,5.0,87,0.00,,,0.00,0,Wunderground v.1.15,2013-01-03 23:50:00,
2013-01-03 17:52:00,8.3,5.2,30.38,WNW,294,5.0,6.0,87,0.00,,,0.00,0,Wunderground v.1.15,2013-01-03 23:52:00,
2013-01-03 17:54:00,8.5,5.7,30.38,WNW,295,5.0,6.0,88,0.00,,,0.00,0,Wunderground v.1.15,2013-01-03 23:54:00,
2013-01-03 17:55:00,8.6,5.8,30.38,WNW,297,6.0,6.0,88,0.00,,,0.00,0,Wunderground v.1.15,2013-01-03 23:55:00,
2013-01-03 17:59:00,9.1,6.5,30.38,WNW,290,5.0,6.0,89,0.00,,,0.00,0,Wunderground v.1.15,2013-01-03 23:59:00,
2013-01-03 18:01:00,9.4,6.8,30.38,WNW,292,5.0,5.0,89,0.00,,,0.00,0,Wunderground v.1.15,2013-01-04 00:01:00,
2013-01-03 18:03:00,9.7,7.1,30.38,NW,311,3.0,5.0,89,0.00,,,0.00,0,Wunderground v.1.15,2013-01-04 00:03:00,
2013-01-03 18:04:00,9.8,7.2,30.38,NW,312,0.0,5.0,89,0.00,,,0.00,0,Wunderground v.1.15,2013-01-04 00:04:00,
2013-01-03 18:06:00,10.1,7.5,30.38,NW,309,3.0,5.0,89,0.00,,,0.00,0,Wunderground v.1.15,2013-01-04 00:06:00,
2013-01-03 18:09:00,10.4,7.8,30.38,WNW,293,3.0,5.0,89,0.00,,,0.00,0,Wunderground v.1.15,2013-01-04 00:09:00,
2013-01-03 18:12:00,11.2,8.6,30.38,WNW,283,2.0,4.0,89,0.00,,,0.00,0,Wunderground v.1.15,2013-01-04 00:12:00,
2013-01-03 18:14:00,11.3,8.7,30.38,WNW,283,2.0,4.0,89,0.00,,,0.00,0,Wunderground v.1.15,2013-01-04 00:14:00,
2013-01-03 18:15:00,11.3,8.7,30.38,WNW,283,2.0,4.0,89,0.00,,,0.00,0,Wunderground v.1.15,2013-01-04 00:15:00,
2013-01-03 18:18:00,11.3,8.4,30.38,West,281,3.0,4.0,88,0.00,,,0.00,0,Wunderground v.1.15,2013-01-04 00:18:00,
2013-01-03 18:20:00,11.3,8.4,30.38,West,281,2.0,4.0,88,0.00,,,0.00,0,Wunderground v.1.15,2013-01-04 00:20:00,
2013-01-03 18:23:00,11.4,8.5,30.38,West,281,3.0,3.0,88,0.00,,,0.00,0,Wunderground v.1.15,2013-01-04 00:23:00,
2013-01-03 18:24:00,11.5,8.6,30.38,West,281,2.0,3.0,88,0.00,,,0.00,0,Wunderground v.1.15,2013-01-04 00:24:00,
2013-01-03 18:25:00,11.5,8.6,30.38,West,281,3.0,3.0,88,0.00,,,0.00,0,Wunderground v.1.15,2013-01-04 00:25:00,
2013-01-03 18:28:00,11.6,8.7,30.38,West,281,2.0,3.0,88,0.00,,,0.00,0,Wunderground v.1.15,2013-01-04 00:28:00,
2013-01-03 18:29:00,11.6,8.7,30.38,West,281,3.0,3.0,88,0.00,,,0.00,0,Wunderground v.1.15,2013-01-04 00:29:00,
2013-01-03 18:30:00,11.6,8.5,30.38,West,281,3.0,3.0,87,0.00,,,0.00,0,Wunderground v.1.15,2013-01-04 00:30:00,
2013-01-03 18:31:00,11.6,8.5,30.38,West,281,3.0,4.0,87,0.00,,,0.00,0,Wunderground v.1.15,2013-01-04 00:31:00,
2013-01-03 18:34:00,11.6,8.7,30.38,West,281,3.0,4.0,88,0.00,,,0.00,0,Wunderground v.1.15,2013-01-04 00:34:00,
2013-01-03 18:35:00,11.6,8.7,30.38,WNW,284,4.0,4.0,88,0.00,,,0.00,0,Wunderground v.1.15,2013-01-04 00:35:00,
2013-01-03 18:37:00,11.6,8.5,30.38,WNW,289,3.0,4.0,87,0.00,,,0.00,0,Wunderground v.1.15,2013-01-04 00:37:00,
2013-01-03 18:39:00,11.7,8.6,30.38,WNW,292,3.0,4.0,87,0.00,,,0.00,0,Wunderground v.1.15,2013-01-04 00:39:00,
2013-01-03 18:41:00,11.7,8.8,30.38,WNW,292,3.0,3.0,88,0.00,,,0.00,0,Wunderground v.1.15,2013-01-04 00:41:00,
2013-01-03 18:46:00,11.4,8.3,30.37,WNW,291,3.0,3.0,87,0.00,,,0.00,0,Wunderground v.1.15,2013-01-04 00:46:00,
2013-01-03 18:47:00,11.4,8.3,30.38,WNW,291,3.0,3.0,87,0.00,,,0.00,0,Wunderground v.1.15,2013-01-04 00:47:00,
2013-01-03 18:51:00,11.2,8.1,30.37,WNW,294,3.0,4.0,87,0.00,,,0.00,0,Wunderground v.1.15,2013-01-04 00:51:00,
2013-01-03 18:52:00,11.2,8.1,30.37,WNW,294,3.0,4.0,87,0.00,,,0.00,0,Wunderground v.1.15,2013-01-04 00:52:00,
2013-01-03 18:53:00,11.1,8.0,30.37,WNW,294,3.0,4.0,87,0.00,,,0.00,0,Wunderground v.1.15,2013-01-04 00:53:00,
2013-01-03 18:57:00,11.0,7.9,30.37,WNW,296,2.0,4.0,87,0.00,,,0.00,0,Wunderground v.1.15,2013-01-04 00:57:00,
2013-01-03 19:00:00,11.0,7.9,30.37,WNW,302,3.0,3.0,87,0.00,,,0.00,0,Wunderground v.1.15,2013-01-04 01:00:00,
2013-01-03 19:03:00,11.0,7.9,30.37,WNW,302,3.0,3.0,87,0.00,,,0.00,0,Wunderground v.1.15,2013-01-04 01:03:00,
2013-01-03 19:04:00,10.8,7.7,30.37,WNW,302,3.0,3.0,87,0.00,,,0.00,0,Wunderground v.1.15,2013-01-04 01:04:00,
2013-01-03 19:05:00,10.7,7.6,30.37,WNW,302,2.0,3.0,87,0.00,,,0.00,0,Wunderground v.1.15,2013-01-04 01:05:00,
2013-01-03 19:08:00,10.3,6.9,30.37,WNW,302,2.0,3.0,86,0.00,,,0.00,0,Wunderground v.1.15,2013-01-04 01:08:00,
2013-01-03 19:09:00,10.2,6.8,30.37,WNW,302,2.0,3.0,86,0.00,,,0.00,0,Wunderground v.1.15,2013-01-04 01:09:00,
2013-01-03 19:11:00,9.8,6.5,30.37,WNW,302,2.0,2.0,86,0.00,,,0.00,0,Wunderground v.1.15,2013-01-04 01:11:00,
2013-01-03 19:14:00,9.1,5.8,30.37,WNW,302,0.0,2.0,86,0.00,,,0.00,0,Wunderground v.1.15,2013-01-04 01:14:00,
2013-01-03 19:15:00,8.7,5.1,30.37,WNW,302,0.0,2.0,85,0.00,,,0.00,0,Wunderground v.1.15,2013-01-04 01:15:00,
2013-01-03 19:16:00,8.3,4.7,30.37,WNW,302,0.0,2.0,85,0.00,,,0.00,0,Wunderground v.1.15,2013-01-04 01:16:00,
2013-01-03 19:19:00,7.8,4.5,30.37,WNW,302,0.0,2.0,86,0.00,,,0.00,0,Wunderground v.1.15,2013-01-04 01:19:00,
2013-01-03 19:22:00,7.6,4.3,30.37,WNW,302,0.0,1.0,86,0.00,,,0.00,0,Wunderground v.1.15,2013-01-04 01:22:00,
2013-01-03 19:24:00,7.6,4.5,30.37,WNW,302,1.0,1.0,87,0.00,,,0.00,0,Wunderground v.1.15,2013-01-04 01:24:00,
2013-01-03 19:25:00,7.7,4.6,30.37,WNW,302,1.0,1.0,87,0.00,,,0.00,0,Wunderground v.1.15,2013-01-04 01:25:00,
2013-01-03 19:27:00,8.1,5.3,30.37,WNW,302,1.0,2.0,88,0.00,,,0.00,0,Wunderground v.1.15,2013-01-04 01:27:00,
2013-01-03 19:28:00,8.2,5.4,30.37,WNW,302,1.0,2.0,88,0.00,,,0.00,0,Wunderground v.1.15,2013-01-04 01:28:00,
2013-01-03 19:31:00,8.4,5.8,30.37,WNW,302,1.0,2.0,89,0.00,,,0.00,0,Wunderground v.1.15,2013-01-04 01:31:00,
2013-01-03 19:32:00,8.3,5.7,30.37,WNW,302,0.0,2.0,89,0.00,,,0.00,0,Wunderground v.1.15,2013-01-04 01:32:00,
2013-01-03 19:35:00,8.2,5.4,30.37,WNW,302,0.0,2.0,88,0.00,,,0.00,0,Wunderground v.1.15,2013-01-04 01:35:00,
2013-01-03 19:36:00,8.1,5.3,30.37,WNW,302,0.0,2.0,88,0.00,,,0.00,0,Wunderground v.1.15,2013-01-04 01:36:00,
2013-01-03 19:38:00,8.2,5.6,30.37,WNW,302,0.0,2.0,89,0.00,,,0.00,0,Wunderground v.1.15,2013-01-04 01:38:00,
2013-01-03 19:39:00,8.3,5.7,30.37,WNW,302,0.0,2.0,89,0.00,,,0.00,0,Wunderground v.1.15,2013-01-04 01:39:00,
2013-01-03 19:41:00,8.5,5.9,30.37,WNW,302,0.0,0.0,89,0.00,,,0.00,0,Wunderground v.1.15,2013-01-04 01:41:00,
2013-01-03 19:44:00,8.7,6.1,30.37,WNW,302,0.0,0.0,89,0.00,,,0.00,0,Wunderground v.1.15,2013-01-04 01:44:00,
2013-01-03 19:45:00,8.3,5.7,30.37,WNW,302,0.0,0.0,89,0.00,,,0.00,0,Wunderground v.1.15,2013-01-04 01:45:00,
2013-01-03 19:46:00,8.3,5.7,30.37,WNW,302,0.0,0.0,89,0.00,,,0.00,0,Wunderground v.1.15,2013-01-04 01:46:00,
2013-01-03 19:49:00,7.5,4.7,30.37,WNW,302,0.0,0.0,88,0.00,,,0.00,0,Wunderground v.1.15,2013-01-04 01:49:00,
2013-01-03 19:50:00,7.6,5.0,30.37,WNW,302,0.0,0.0,89,0.00,,,0.00,0,Wunderground v.1.15,2013-01-04 01:50:00,
2013-01-03 19:51:00,7.6,5.0,30.37,WNW,302,0.0,0.0,89,0.00,,,0.00,0,Wunderground v.1.15,2013-01-04 01:51:00,
2013-01-03 19:52:00,7.7,5.1,30.37,WNW,302,0.0,0.0,89,0.00,,,0.00,0,Wunderground v.1.15,2013-01-04 01:52:00,
2013-01-03 19:54:00,7.9,5.6,30.37,WNW,302,0.0,0.0,90,0.00,,,0.00,0,Wunderground v.1.15,2013-01-04 01:54:00,
2013-01-03 19:56:00,8.0,5.7,30.37,WNW,302,0.0,0.0,90,0.00,,,0.00,0,Wunderground v.1.15,2013-01-04 01:56:00,
2013-01-03 19:57:00,8.0,5.7,30.37,WNW,302,0.0,0.0,90,0.00,,,0.00,0,Wunderground v.1.15,2013-01-04 01:57:00,
2013-01-03 20:00:00,7.8,5.2,30.37,WNW,302,0.0,0.0,89,0.00,,,0.00,0,Wunderground v.1.15,2013-01-04 02:00:00,
2013-01-03 20:03:00,7.5,4.9,30.36,WNW,302,0.0,0.0,89,0.00,,,0.00,0,Wunderground v.1.15,2013-01-04 02:03:00,
2013-01-03 20:04:00,7.5,4.9,30.36,WNW,302,0.0,0.0,89,0.00,,,0.00,0,Wunderground v.1.15,2013-01-04 02:04:00,
2013-01-03 20:05:00,7.4,4.8,30.36,WNW,302,0.0,0.0,89,0.00,,,0.00,0,Wunderground v.1.15,2013-01-04 02:05:00,
2013-01-03 20:07:00,7.4,4.8,30.36,WNW,302,0.0,0.0,89,0.00,,,0.00,0,Wunderground v.1.15,2013-01-04 02:07:00,
2013-01-03 20:09:00,7.3,4.7,30.36,WNW,302,0.0,0.0,89,0.00,,,0.00,0,Wunderground v.1.15,2013-01-04 02:09:00,
2013-01-03 20:11:00,6.9,4.3,30.36,WNW,294,2.0,2.0,89,0.00,,,0.00,0,Wunderground v.1.15,2013-01-04 02:11:00,
2013-01-03 20:14:00,6.6,4.0,30.36,WNW,294,0.0,2.0,89,0.00,,,0.00,0,Wunderground v.1.15,2013-01-04 02:14:00,
2013-01-03 20:17:00,6.1,3.6,30.36,WNW,294,0.0,2.0,89,0.00,,,0.00,0,Wunderground v.1.15,2013-01-04 02:17:00,
2013-01-03 20:20:00,6.0,3.5,30.36,WNW,294,0.0,1.0,89,0.00,,,0.00,0,Wunderground v.1.15,2013-01-04 02:20:00,
2013-01-03 20:22:00,5.9,3.4,30.35,WNW,294,0.0,1.0,89,0.00,,,0.00,0,Wunderground v.1.15,2013-01-04 02:22:00,
2013-01-03 20:23:00,5.8,3.3,30.35,WNW,294,0.0,1.0,89,0.00,,,0.00,0,Wunderground v.1.15,2013-01-04 02:23:00,
2013-01-03 20:26:00,5.6,3.1,30.35,WNW,294,0.0,1.0,89,0.00,,,0.00,0,Wunderground v.1.15,2013-01-04 02:26:00,
2013-01-03 20:29:00,5.4,2.9,30.35,WNW,294,0.0,1.0,89,0.00,,,0.00,0,Wunderground v.1.15,2013-01-04 02:29:00,
2013-01-03 20:31:00,5.4,2.9,30.35,WNW,291,1.0,1.0,89,0.00,,,0.00,0,Wunderground v.1.15,2013-01-04 02:31:00,
2013-01-03 20:34:00,5.5,3.0,30.34,West,280,1.0,2.0,89,0.00,,,0.00,0,Wunderground v.1.15,2013-01-04 02:34:00,
2013-01-03 20:35:00,5.4,2.9,30.34,West,280,1.0,2.0,89,0.00,,,0.00,0,Wunderground v.1.15,2013-01-04 02:35:00,
2013-01-03 20:36:00,5.4,2.9,30.34,West,280,0.0,2.0,89,0.00,,,0.00,0,Wunderground v.1.15,2013-01-04 02:36:00,
2013-01-03 20:37:00,5.4,2.9,30.35,West,280,0.0,2.0,89,0.00,,,0.00,0,Wunderground v.1.15,2013-01-04 02:37:00,
2013-01-03 20:40:00,5.6,3.3,30.34,West,280,0.0,0.0,90,0.00,,,0.00,0,Wunderground v.1.15,2013-01-04 02:40:00,
2013-01-03 20:42:00,5.7,3.4,30.34,West,280,0.0,0.0,90,0.00,,,0.00,0,Wunderground v.1.15,2013-01-04 02:42:00,
2013-01-03 20:46:00,6.0,3.7,30.34,West,280,0.0,2.0,90,0.00,,,0.00,0,Wunderground v.1.15,2013-01-04 02:46:00,
2013-01-03 20:49:00,6.5,4.2,30.34,West,280,0.0,2.0,90,0.00,,,0.00,0,Wunderground v.1.15,2013-01-04 02:49:00,
2013-01-03 20:51:00,6.7,4.4,30.34,West,280,0.0,0.0,90,0.00,,,0.00,0,Wunderground v.1.15,2013-01-04 02:51:00,
2013-01-03 20:54:00,6.7,4.4,30.34,West,280,0.0,0.0,90,0.00,,,0.00,0,Wunderground v.1.15,2013-01-04 02:54:00,
2013-01-03 20:56:00,6.6,4.3,30.34,West,280,0.0,0.0,90,0.00,,,0.00,0,Wunderground v.1.15,2013-01-04 02:56:00,
2013-01-03 20:57:00,6.6,4.3,30.34,West,280,0.0,0.0,90,0.00,,,0.00,0,Wunderground v.1.15,2013-01-04 02:57:00,
2013-01-03 20:58:00,6.6,4.3,30.34,West,280,0.0,0.0,90,0.00,,,0.00,0,Wunderground v.1.15,2013-01-04 02:58:00,
2013-01-03 20:59:00,6.6,4.3,30.34,West,280,0.0,0.0,90,0.00,,,0.00,0,Wunderground v.1.15,2013-01-04 02:59:00,
2013-01-03 21:01:00,6.7,4.4,30.34,West,280,0.0,0.0,90,0.00,,,0.00,0,Wunderground v.1.15,2013-01-04 03:01:00,
2013-01-03 21:02:00,6.7,4.4,30.34,West,280,0.0,0.0,90,0.00,,,0.00,0,Wunderground v.1.15,2013-01-04 03:02:00,
2013-01-03 21:04:00,6.9,4.6,30.34,West,280,0.0,0.0,90,0.00,,,0.00,0,Wunderground v.1.15,2013-01-04 03:04:00,
2013-01-03 21:08:00,6.9,4.6,30.34,West,280,0.0,0.0,90,0.00,,,0.00,0,Wunderground v.1.15,2013-01-04 03:08:00,
2013-01-03 21:09:00,6.9,4.6,30.34,West,280,0.0,0.0,90,0.00,,,0.00,0,Wunderground v.1.15,2013-01-04 03:09:00,
2013-01-03 21:10:00,6.9,4.6,30.34,West,280,0.0,0.0,90,0.00,,,0.00,0,Wunderground v.1.15,2013-01-04 03:10:00,
2013-01-03 21:13:00,6.8,4.5,30.34,West,280,0.0,0.0,90,0.00,,,0.00,0,Wunderground v.1.15,2013-01-04 03:13:00,
2013-01-03 21:14:00,6.8,4.5,30.34,West,280,0.0,0.0,90,0.00,,,0.00,0,Wunderground v.1.15,2013-01-04 03:14:00,
2013-01-03 21:15:00,6.7,4.4,30.34,West,280,0.0,0.0,90,0.00,,,0.00,0,Wunderground v.1.15,2013-01-04 03:15:00,
2013-01-03 21:16:00,6.6,4.3,30.34,West,280,0.0,0.0,90,0.00,,,0.00,0,Wunderground v.1.15,2013-01-04 03:16:00,
2013-01-03 21:19:00,6.7,4.4,30.34,West,280,0.0,0.0,90,0.00,,,0.00,0,Wunderground v.1.15,2013-01-04 03:19:00,
2013-01-03 21:21:00,6.9,4.6,30.34,West,280,0.0,0.0,90,0.00,,,0.00,0,Wunderground v.1.15,2013-01-04 03:21:00,
2013-01-03 21:22:00,7.0,4.7,30.34,West,280,0.0,0.0,90,0.00,,,0.00,0,Wunderground v.1.15,2013-01-04 03:22:00,
2013-01-03 21:24:00,7.3,5.2,30.34,West,280,0.0,0.0,91,0.00,,,0.00,0,Wunderground v.1.15,2013-01-04 03:24:00,
2013-01-03 21:25:00,7.3,5.2,30.34,West,280,0.0,0.0,91,0.00,,,0.00,0,Wunderground v.1.15,2013-01-04 03:25:00,
2013-01-03 21:26:00,7.4,5.1,30.34,West,280,0.0,0.0,90,0.00,,,0.00,0,Wunderground v.1.15,2013-01-04 03:26:00,
2013-01-03 21:27:00,7.5,5.2,30.34,West,280,0.0,0.0,90,0.00,,,0.00,0,Wunderground v.1.15,2013-01-04 03:27:00,
2013-01-03 21:31:00,7.7,5.4,30.34,West,280,0.0,0.0,90,0.00,,,0.00,0,Wunderground v.1.15,2013-01-04 03:31:00,
2013-01-03 21:33:00,7.7,5.4,30.34,West,280,0.0,0.0,90,0.00,,,0.00,0,Wunderground v.1.15,2013-01-04 03:33:00,
2013-01-03 21:34:00,7.7,5.4,30.34,West,280,0.0,0.0,90,0.00,,,0.00,0,Wunderground v.1.15,2013-01-04 03:34:00,
2013-01-03 21:35:00,7.7,5.4,30.34,West,280,0.0,0.0,90,0.00,,,0.00,0,Wunderground v.1.15,2013-01-04 03:35:00,
2013-01-03 21:36:00,7.6,5.3,30.34,West,280,0.0,0.0,90,0.00,,,0.00,0,Wunderground v.1.15,2013-01-04 03:36:00,
2013-01-03 21:38:00,7.2,4.9,30.34,West,280,0.0,0.0,90,0.00,,,0.00,0,Wunderground v.1.15,2013-01-04 03:38:00,
2013-01-03 21:40:00,6.9,4.3,30.34,West,280,0.0,0.0,89,0.00,,,0.00,0,Wunderground v.1.15,2013-01-04 03:40:00,
2013-01-03 21:41:00,6.8,4.2,30.34,West,280,0.0,0.0,89,0.00,,,0.00,0,Wunderground v.1.15,2013-01-04 03:41:00,
2013-01-03 21:42:00,6.6,4.0,30.34,West,280,0.0,0.0,89,0.00,,,0.00,0,Wunderground v.1.15,2013-01-04 03:42:00,
2013-01-03 21:43:00,6.4,3.9,30.34,West,280,0.0,0.0,89,0.00,,,0.00,0,Wunderground v.1.15,2013-01-04 03:43:00,
2013-01-03 21:47:00,6.5,4.2,30.34,West,280,0.0,1.0,90,0.00,,,0.00,0,Wunderground v.1.15,2013-01-04 03:47:00,
2013-01-03 21:50:00,6.5,4.2,30.34,West,280,0.0,1.0,90,0.00,,,0.00,0,Wunderground v.1.15,2013-01-04 03:50:00,
2013-01-03 21:51:00,6.4,4.1,30.34,West,280,0.0,0.0,90,0.00,,,0.00,0,Wunderground v.1.15,2013-01-04 03:51:00,
2013-01-03 21:52:00,6.2,3.7,30.34,West,280,0.0,0.0,89,0.00,,,0.00,0,Wunderground v.1.15,2013-01-04 03:52:00,
2013-01-03 21:55:00,5.9,3.4,30.34,West,280,0.0,0.0,89,0.00,,,0.00,0,Wunderground v.1.15,2013-01-04 03:55:00,
2013-01-03 21:56:00,5.8,3.3,30.34,West,280,0.0,0.0,89,0.00,,,0.00,0,Wunderground v.1.15,2013-01-04 03:56:00,
2013-01-03 21:57:00,5.8,3.3,30.34,West,280,0.0,0.0,89,0.00,,,0.00,0,Wunderground v.1.15,2013-01-04 03:57:00,
2013-01-03 22:01:00,5.7,3.2,30.34,West,280,0.0,0.0,89,0.00,,,0.00,0,Wunderground v.1.15,2013-01-04 04:01:00,
2013-01-03 22:05:00,5.3,2.8,30.34,West,280,0.0,0.0,89,0.00,,,0.00,0,Wunderground v.1.15,2013-01-04 04:05:00,
2013-01-03 22:06:00,5.1,2.6,30.34,West,280,0.0,0.0,89,0.00,,,0.00,0,Wunderground v.1.15,2013-01-04 04:06:00,
2013-01-03 22:07:00,5.1,2.6,30.34,West,280,0.0,0.0,89,0.00,,,0.00,0,Wunderground v.1.15,2013-01-04 04:07:00,
2013-01-03 22:10:00,4.9,2.4,30.34,West,280,0.0,0.0,89,0.00,,,0.00,0,Wunderground v.1.15,2013-01-04 04:10:00,
2013-01-03 22:11:00,4.7,2.2,30.34,West,280,0.0,0.0,89,0.00,,,0.00,0,Wunderground v.1.15,2013-01-04 04:11:00,
2013-01-03 22:13:00,4.6,2.1,30.34,West,280,0.0,0.0,89,0.00,,,0.00,0,Wunderground v.1.15,2013-01-04 04:13:00,
2013-01-03 22:16:00,4.4,1.9,30.33,West,277,1.0,1.0,89,0.00,,,0.00,0,Wunderground v.1.15,2013-01-04 04:16:00,
2013-01-03 22:17:00,4.5,2.0,30.33,West,277,1.0,1.0,89,0.00,,,0.00,0,Wunderground v.1.15,2013-01-04 04:17:00,
2013-01-03 22:18:00,4.5,2.0,30.33,West,277,1.0,1.0,89,0.00,,,0.00,0,Wunderground v.1.15,2013-01-04 04:18:00,
2013-01-03 22:22:00,4.4,1.9,30.33,West,277,0.0,0.0,89,0.00,,,0.00,0,Wunderground v.1.15,2013-01-04 04:22:00,
2013-01-03 22:23:00,4.3,1.8,30.33,West,277,0.0,0.0,89,0.00,,,0.00,0,Wunderground v.1.15,2013-01-04 04:23:00,
2013-01-03 22:28:00,4.2,1.7,30.33,West,277,0.0,1.0,89,0.00,,,0.00,0,Wunderground v.1.15,2013-01-04 04:28:00,
2013-01-03 22:29:00,4.3,1.8,30.33,West,277,0.0,1.0,89,0.00,,,0.00,0,Wunderground v.1.15,2013-01-04 04:29:00,
2013-01-03 22:33:00,4.5,2.0,30.33,West,277,0.0,0.0,89,0.00,,,0.00,0,Wunderground v.1.15,2013-01-04 04:33:00,
2013-01-03 22:34:00,4.5,2.0,30.33,West,277,0.0,0.0,89,0.00,,,0.00,0,Wunderground v.1.15,2013-01-04 04:34:00,
2013-01-03 22:37:00,4.6,2.1,30.33,West,277,0.0,0.0,89,0.00,,,0.00,0,Wunderground v.1.15,2013-01-04 04:37:00,
2013-01-03 22:39:00,4.5,2.0,30.33,West,277,0.0,0.0,89,0.00,,,0.00,0,Wunderground v.1.15,2013-01-04 04:39:00,
2013-01-03 22:42:00,4.5,2.0,30.33,West,277,0.0,0.0,89,0.00,,,0.00,0,Wunderground v.1.15,2013-01-04 04:42:00,
2013-01-03 22:44:00,4.5,2.0,30.33,West,277,0.0,0.0,89,0.00,,,0.00,0,Wunderground v.1.15,2013-01-04 04:44:00,
2013-01-03 22:46:00,4.5,2.0,30.32,West,277,0.0,0.0,89,0.00,,,0.00,0,Wunderground v.1.15,2013-01-04 04:46:00,
2013-01-03 22:47:00,4.5,2.0,30.32,West,277,0.0,0.0,89,0.00,,,0.00,0,Wunderground v.1.15,2013-01-04 04:47:00,
2013-01-03 22:49:00,4.6,2.1,30.32,West,277,0.0,0.0,89,0.00,,,0.00,0,Wunderground v.1.15,2013-01-04 04:49:00,
2013-01-03 22:51:00,4.6,2.1,30.32,West,277,0.0,0.0,89,0.00,,,0.00,0,Wunderground v.1.15,2013-01-04 04:51:00,
2013-01-03 22:52:00,4.7,2.2,30.32,West,277,0.0,0.0,89,0.00,,,0.00,0,Wunderground v.1.15,2013-01-04 04:52:00,
2013-01-03 22:53:00,4.7,2.2,30.33,West,277,0.0,0.0,89,0.00,,,0.00,0,Wunderground v.1.15,2013-01-04 04:53:00,
2013-01-03 22:54:00,4.7,2.2,30.33,West,277,0.0,0.0,89,0.00,,,0.00,0,Wunderground v.1.15,2013-01-04 04:54:00,
2013-01-03 22:57:00,4.7,2.2,30.33,West,277,0.0,0.0,89,0.00,,,0.00,0,Wunderground v.1.15,2013-01-04 04:57:00,
2013-01-03 22:58:00,4.7,2.2,30.33,West,277,0.0,0.0,89,0.00,,,0.00,0,Wunderground v.1.15,2013-01-04 04:58:00,
2013-01-03 23:00:00,4.7,2.2,30.33,West,277,0.0,0.0,89,0.00,,,0.00,0,Wunderground v.1.15,2013-01-04 05:00:00,
2013-01-03 23:03:00,4.6,2.1,30.33,West,277,0.0,0.0,89,0.00,,,0.00,0,Wunderground v.1.15,2013-01-04 05:03:00,
2013-01-03 23:04:00,4.6,2.1,30.32,West,277,0.0,0.0,89,0.00,,,0.00,0,Wunderground v.1.15,2013-01-04 05:04:00,
2013-01-03 23:07:00,4.5,2.0,30.32,West,277,0.0,0.0,89,0.00,,,0.00,0,Wunderground v.1.15,2013-01-04 05:07:00,
2013-01-03 23:08:00,4.3,1.8,30.32,West,277,0.0,0.0,89,0.00,,,0.00,0,Wunderground v.1.15,2013-01-04 05:08:00,
2013-01-03 23:09:00,4.4,1.9,30.32,West,277,0.0,0.0,89,0.00,,,0.00,0,Wunderground v.1.15,2013-01-04 05:09:00,
2013-01-03 23:13:00,4.2,1.4,30.32,West,277,0.0,0.0,88,0.00,,,0.00,0,Wunderground v.1.15,2013-01-04 05:13:00,
2013-01-03 23:14:00,4.1,1.3,30.32,West,277,0.0,0.0,88,0.00,,,0.00,0,Wunderground v.1.15,2013-01-04 05:14:00,
2013-01-03 23:18:00,4.2,1.4,30.32,West,277,0.0,0.0,88,0.00,,,0.00,0,Wunderground v.1.15,2013-01-04 05:18:00,
2013-01-03 23:19:00,4.1,1.6,30.32,West,277,0.0,0.0,89,0.00,,,0.00,0,Wunderground v.1.15,2013-01-04 05:19:00,
2013-01-03 23:20:00,4.1,1.6,30.32,West,277,0.0,0.0,89,0.00,,,0.00,0,Wunderground v.1.15,2013-01-04 05:20:00,
2013-01-03 23:21:00,4.2,1.7,30.32,West,277,0.0,0.0,89,0.00,,,0.00,0,Wunderground v.1.15,2013-01-04 05:21:00,
2013-01-03 23:24:00,4.3,1.8,30.32,West,277,0.0,0.0,89,0.00,,,0.00,0,Wunderground v.1.15,2013-01-04 05:24:00,
2013-01-03 23:26:00,4.4,1.9,30.32,West,277,0.0,0.0,89,0.00,,,0.00,0,Wunderground v.1.15,2013-01-04 05:26:00,
2013-01-03 23:29:00,4.5,2.0,30.32,West,277,0.0,0.0,89,0.00,,,0.00,0,Wunderground v.1.15,2013-01-04 05:29:00,
2013-01-03 23:31:00,4.6,2.1,30.32,West,277,0.0,0.0,89,0.00,,,0.00,0,Wunderground v.1.15,2013-01-04 05:31:00,
2013-01-03 23:34:00,4.6,2.1,30.32,West,277,0.0,0.0,89,0.00,,,0.00,0,Wunderground v.1.15,2013-01-04 05:34:00,
2013-01-03 23:36:00,4.5,2.0,30.32,West,277,0.0,0.0,89,0.00,,,0.00,0,Wunderground v.1.15,2013-01-04 05:36:00,
2013-01-03 23:39:00,4.2,1.4,30.32,West,277,0.0,0.0,88,0.00,,,0.00,0,Wunderground v.1.15,2013-01-04 05:39:00,
2013-01-03 23:40:00,4.2,1.4,30.32,West,277,0.0,0.0,88,0.00,,,0.00,0,Wunderground v.1.15,2013-01-04 05:40:00,
2013-01-03 23:41:00,4.1,1.3,30.32,West,277,0.0,0.0,88,0.00,,,0.00,0,Wunderground v.1.15,2013-01-04 05:41:00,
2013-01-03 23:45:00,4.2,1.7,30.32,West,277,0.0,1.0,89,0.00,,,0.00,0,Wunderground v.1.15,2013-01-04 05:45:00,
2013-01-03 23:46:00,4.2,1.7,30.32,West,277,0.0,1.0,89,0.00,,,0.00,0,Wunderground v.1.15,2013-01-04 05:46:00,
2013-01-03 23:47:00,4.2,1.7,30.32,West,277,1.0,1.0,89,0.00,,,0.00,0,Wunderground v.1.15,2013-01-04 05:47:00,
2013-01-03 23:52:00,4.3,1.8,30.32,West,277,0.0,1.0,89,0.00,,,0.00,0,Wunderground v.1.15,2013-01-04 05:52:00,
2013-01-03 23:57:00,4.6,2.1,30.31,West,265,3.0,3.0,89,0.00,,,0.00,0,Wunderground v.1.15,2013-01-04 05:57:00,
2013-01-03 23:58:00,4.7,2.2,30.31,West,265,1.0,3.0,89,0.00,,,0.00,0,Wunderground v.1.15,2013-01-04 05:58:00,
2013-01-03 23:59:00,4.9,2.4,30.31,West,265,1.0,3.0,89,0.00,,,0.00,0,Wunderground v.1.15,2013-01-04 05:59:00,